<?xml version="1.0"?>
<gpx xmlns="http://www.topografix.com/GPX/1/1" xmlns:xsi="http://www.w3.org/2001/XMLSchema-instance" version="1.1" creator="GPX RubyGem 1.0.0 -- http://dougfales.github.io/gpx/" xsi:schemaLocation="http://www.topografix.com/GPX/1/1 http://www.topografix.com/GPX/1/1/gpx.xsd">
  <metadata>
    <name/>
    <time>2026-05-08T12:33:35+00:00</time>
    <bound minlat="90.0" minlon="180.0" maxlat="-90.0" maxlon="-180.0"/>
  </metadata>
  <trk>
    <name/>
    <trkseg>
      <trkpt lat="44.451286" lon="6.846158">
        <time>1970-01-01T00:00:00+00:00</time>
        <ele>1677.0</ele>
      </trkpt>
      <trkpt lat="44.451397" lon="6.846292">
        <time>1970-01-01T00:00:00+00:00</time>
        <ele>1678.0</ele>
      </trkpt>
      <trkpt lat="44.451577" lon="6.84651">
        <time>1970-01-01T00:00:00+00:00</time>
        <ele>1680.0</ele>
      </trkpt>
      <trkpt lat="44.451266" lon="6.846992">
        <time>1970-01-01T00:00:00+00:00</time>
        <ele>1679.0</ele>
      </trkpt>
      <trkpt lat="44.451567" lon="6.847378">
        <time>1970-01-01T00:00:00+00:00</time>
        <ele>1682.0</ele>
      </trkpt>
      <trkpt lat="44.451705" lon="6.847567">
        <time>1970-01-01T00:00:00+00:00</time>
        <ele>1684.0</ele>
      </trkpt>
      <trkpt lat="44.451886" lon="6.847698">
        <time>1970-01-01T00:00:00+00:00</time>
        <ele>1686.0</ele>
      </trkpt>
      <trkpt lat="44.452277" lon="6.848172">
        <time>1970-01-01T00:00:00+00:00</time>
        <ele>1692.0</ele>
      </trkpt>
      <trkpt lat="44.452628" lon="6.848776">
        <time>1970-01-01T00:00:00+00:00</time>
        <ele>1699.0</ele>
      </trkpt>
      <trkpt lat="44.452685" lon="6.849125">
        <time>1970-01-01T00:00:00+00:00</time>
        <ele>1701.0</ele>
      </trkpt>
      <trkpt lat="44.452873" lon="6.849556">
        <time>1970-01-01T00:00:00+00:00</time>
        <ele>1705.0</ele>
      </trkpt>
      <trkpt lat="44.452888" lon="6.849669">
        <time>1970-01-01T00:00:00+00:00</time>
        <ele>1706.0</ele>
      </trkpt>
      <trkpt lat="44.452877" lon="6.850042">
        <time>1970-01-01T00:00:00+00:00</time>
        <ele>1706.0</ele>
      </trkpt>
      <trkpt lat="44.452887" lon="6.850112">
        <time>1970-01-01T00:00:00+00:00</time>
        <ele>1706.0</ele>
      </trkpt>
      <trkpt lat="44.452985" lon="6.850352">
        <time>1970-01-01T00:00:00+00:00</time>
        <ele>1706.0</ele>
      </trkpt>
      <trkpt lat="44.45305" lon="6.85048">
        <time>1970-01-01T00:00:00+00:00</time>
        <ele>1708.0</ele>
      </trkpt>
      <trkpt lat="44.453381" lon="6.850977">
        <time>1970-01-01T00:00:00+00:00</time>
        <ele>1715.0</ele>
      </trkpt>
      <trkpt lat="44.453698" lon="6.851096">
        <time>1970-01-01T00:00:00+00:00</time>
        <ele>1717.0</ele>
      </trkpt>
      <trkpt lat="44.45423" lon="6.851268">
        <time>1970-01-01T00:00:00+00:00</time>
        <ele>1725.0</ele>
      </trkpt>
      <trkpt lat="44.454414" lon="6.85137">
        <time>1970-01-01T00:00:00+00:00</time>
        <ele>1727.0</ele>
      </trkpt>
      <trkpt lat="44.454528" lon="6.851472">
        <time>1970-01-01T00:00:00+00:00</time>
        <ele>1728.0</ele>
      </trkpt>
      <trkpt lat="44.454669" lon="6.851645">
        <time>1970-01-01T00:00:00+00:00</time>
        <ele>1730.0</ele>
      </trkpt>
      <trkpt lat="44.454906" lon="6.852037">
        <time>1970-01-01T00:00:00+00:00</time>
        <ele>1735.0</ele>
      </trkpt>
      <trkpt lat="44.455015" lon="6.852273">
        <time>1970-01-01T00:00:00+00:00</time>
        <ele>1738.0</ele>
      </trkpt>
      <trkpt lat="44.455118" lon="6.852547">
        <time>1970-01-01T00:00:00+00:00</time>
        <ele>1742.0</ele>
      </trkpt>
      <trkpt lat="44.455173" lon="6.852617">
        <time>1970-01-01T00:00:00+00:00</time>
        <ele>1744.0</ele>
      </trkpt>
      <trkpt lat="44.455538" lon="6.852943">
        <time>1970-01-01T00:00:00+00:00</time>
        <ele>1748.0</ele>
      </trkpt>
      <trkpt lat="44.455694" lon="6.852968">
        <time>1970-01-01T00:00:00+00:00</time>
        <ele>1750.0</ele>
      </trkpt>
      <trkpt lat="44.455744" lon="6.852874">
        <time>1970-01-01T00:00:00+00:00</time>
        <ele>1753.0</ele>
      </trkpt>
      <trkpt lat="44.455894" lon="6.852837">
        <time>1970-01-01T00:00:00+00:00</time>
        <ele>1758.0</ele>
      </trkpt>
      <trkpt lat="44.455939" lon="6.852852">
        <time>1970-01-01T00:00:00+00:00</time>
        <ele>1760.0</ele>
      </trkpt>
      <trkpt lat="44.456024" lon="6.852974">
        <time>1970-01-01T00:00:00+00:00</time>
        <ele>1760.0</ele>
      </trkpt>
      <trkpt lat="44.456149" lon="6.852994">
        <time>1970-01-01T00:00:00+00:00</time>
        <ele>1764.0</ele>
      </trkpt>
      <trkpt lat="44.456499" lon="6.85318">
        <time>1970-01-01T00:00:00+00:00</time>
        <ele>1774.0</ele>
      </trkpt>
      <trkpt lat="44.456643" lon="6.85332">
        <time>1970-01-01T00:00:00+00:00</time>
        <ele>1777.0</ele>
      </trkpt>
      <trkpt lat="44.456673" lon="6.853422">
        <time>1970-01-01T00:00:00+00:00</time>
        <ele>1775.0</ele>
      </trkpt>
      <trkpt lat="44.456703" lon="6.853455">
        <time>1970-01-01T00:00:00+00:00</time>
        <ele>1776.0</ele>
      </trkpt>
      <trkpt lat="44.456843" lon="6.853515">
        <time>1970-01-01T00:00:00+00:00</time>
        <ele>1780.0</ele>
      </trkpt>
      <trkpt lat="44.456985" lon="6.853733">
        <time>1970-01-01T00:00:00+00:00</time>
        <ele>1781.0</ele>
      </trkpt>
      <trkpt lat="44.457001" lon="6.853719">
        <time>1970-01-01T00:00:00+00:00</time>
        <ele>1782.0</ele>
      </trkpt>
      <trkpt lat="44.456987" lon="6.85361">
        <time>1970-01-01T00:00:00+00:00</time>
        <ele>1785.0</ele>
      </trkpt>
      <trkpt lat="44.45709" lon="6.853651">
        <time>1970-01-01T00:00:00+00:00</time>
        <ele>1788.0</ele>
      </trkpt>
      <trkpt lat="44.457202" lon="6.853617">
        <time>1970-01-01T00:00:00+00:00</time>
        <ele>1794.0</ele>
      </trkpt>
      <trkpt lat="44.457214" lon="6.853605">
        <time>1970-01-01T00:00:00+00:00</time>
        <ele>1795.0</ele>
      </trkpt>
      <trkpt lat="44.457182" lon="6.853532">
        <time>1970-01-01T00:00:00+00:00</time>
        <ele>1796.0</ele>
      </trkpt>
      <trkpt lat="44.457231" lon="6.853529">
        <time>1970-01-01T00:00:00+00:00</time>
        <ele>1798.0</ele>
      </trkpt>
      <trkpt lat="44.457251" lon="6.8535">
        <time>1970-01-01T00:00:00+00:00</time>
        <ele>1800.0</ele>
      </trkpt>
      <trkpt lat="44.457193" lon="6.853446">
        <time>1970-01-01T00:00:00+00:00</time>
        <ele>1800.0</ele>
      </trkpt>
      <trkpt lat="44.457178" lon="6.853398">
        <time>1970-01-01T00:00:00+00:00</time>
        <ele>1801.0</ele>
      </trkpt>
      <trkpt lat="44.457249" lon="6.853378">
        <time>1970-01-01T00:00:00+00:00</time>
        <ele>1805.0</ele>
      </trkpt>
      <trkpt lat="44.457281" lon="6.853297">
        <time>1970-01-01T00:00:00+00:00</time>
        <ele>1809.0</ele>
      </trkpt>
      <trkpt lat="44.457349" lon="6.853341">
        <time>1970-01-01T00:00:00+00:00</time>
        <ele>1809.0</ele>
      </trkpt>
      <trkpt lat="44.45739" lon="6.85334">
        <time>1970-01-01T00:00:00+00:00</time>
        <ele>1811.0</ele>
      </trkpt>
      <trkpt lat="44.457395" lon="6.853312">
        <time>1970-01-01T00:00:00+00:00</time>
        <ele>1812.0</ele>
      </trkpt>
      <trkpt lat="44.45737" lon="6.853285">
        <time>1970-01-01T00:00:00+00:00</time>
        <ele>1812.0</ele>
      </trkpt>
      <trkpt lat="44.457379" lon="6.853248">
        <time>1970-01-01T00:00:00+00:00</time>
        <ele>1814.0</ele>
      </trkpt>
      <trkpt lat="44.457474" lon="6.853246">
        <time>1970-01-01T00:00:00+00:00</time>
        <ele>1817.0</ele>
      </trkpt>
      <trkpt lat="44.457482" lon="6.853228">
        <time>1970-01-01T00:00:00+00:00</time>
        <ele>1818.0</ele>
      </trkpt>
      <trkpt lat="44.457456" lon="6.853194">
        <time>1970-01-01T00:00:00+00:00</time>
        <ele>1819.0</ele>
      </trkpt>
      <trkpt lat="44.457463" lon="6.85318">
        <time>1970-01-01T00:00:00+00:00</time>
        <ele>1819.0</ele>
      </trkpt>
      <trkpt lat="44.457535" lon="6.853137">
        <time>1970-01-01T00:00:00+00:00</time>
        <ele>1823.0</ele>
      </trkpt>
      <trkpt lat="44.457606" lon="6.853056">
        <time>1970-01-01T00:00:00+00:00</time>
        <ele>1828.0</ele>
      </trkpt>
      <trkpt lat="44.457655" lon="6.853062">
        <time>1970-01-01T00:00:00+00:00</time>
        <ele>1830.0</ele>
      </trkpt>
      <trkpt lat="44.457661" lon="6.853041">
        <time>1970-01-01T00:00:00+00:00</time>
        <ele>1831.0</ele>
      </trkpt>
      <trkpt lat="44.457631" lon="6.852963">
        <time>1970-01-01T00:00:00+00:00</time>
        <ele>1832.0</ele>
      </trkpt>
      <trkpt lat="44.457521" lon="6.852933">
        <time>1970-01-01T00:00:00+00:00</time>
        <ele>1829.0</ele>
      </trkpt>
      <trkpt lat="44.457526" lon="6.8529">
        <time>1970-01-01T00:00:00+00:00</time>
        <ele>1830.0</ele>
      </trkpt>
      <trkpt lat="44.457601" lon="6.852859">
        <time>1970-01-01T00:00:00+00:00</time>
        <ele>1834.0</ele>
      </trkpt>
      <trkpt lat="44.457606" lon="6.852751">
        <time>1970-01-01T00:00:00+00:00</time>
        <ele>1837.0</ele>
      </trkpt>
      <trkpt lat="44.457697" lon="6.852656">
        <time>1970-01-01T00:00:00+00:00</time>
        <ele>1843.0</ele>
      </trkpt>
      <trkpt lat="44.457639" lon="6.85261">
        <time>1970-01-01T00:00:00+00:00</time>
        <ele>1843.0</ele>
      </trkpt>
      <trkpt lat="44.457672" lon="6.852537">
        <time>1970-01-01T00:00:00+00:00</time>
        <ele>1846.0</ele>
      </trkpt>
      <trkpt lat="44.457624" lon="6.85247">
        <time>1970-01-01T00:00:00+00:00</time>
        <ele>1847.0</ele>
      </trkpt>
      <trkpt lat="44.457684" lon="6.852413">
        <time>1970-01-01T00:00:00+00:00</time>
        <ele>1849.0</ele>
      </trkpt>
      <trkpt lat="44.457666" lon="6.852273">
        <time>1970-01-01T00:00:00+00:00</time>
        <ele>1853.0</ele>
      </trkpt>
      <trkpt lat="44.457536" lon="6.852113">
        <time>1970-01-01T00:00:00+00:00</time>
        <ele>1854.0</ele>
      </trkpt>
      <trkpt lat="44.457588" lon="6.851991">
        <time>1970-01-01T00:00:00+00:00</time>
        <ele>1859.0</ele>
      </trkpt>
      <trkpt lat="44.457649" lon="6.851986">
        <time>1970-01-01T00:00:00+00:00</time>
        <ele>1861.0</ele>
      </trkpt>
      <trkpt lat="44.457643" lon="6.851921">
        <time>1970-01-01T00:00:00+00:00</time>
        <ele>1863.0</ele>
      </trkpt>
      <trkpt lat="44.45772" lon="6.851899">
        <time>1970-01-01T00:00:00+00:00</time>
        <ele>1865.0</ele>
      </trkpt>
      <trkpt lat="44.457748" lon="6.851881">
        <time>1970-01-01T00:00:00+00:00</time>
        <ele>1866.0</ele>
      </trkpt>
      <trkpt lat="44.457756" lon="6.851853">
        <time>1970-01-01T00:00:00+00:00</time>
        <ele>1867.0</ele>
      </trkpt>
      <trkpt lat="44.457684" lon="6.851811">
        <time>1970-01-01T00:00:00+00:00</time>
        <ele>1867.0</ele>
      </trkpt>
      <trkpt lat="44.457659" lon="6.851764">
        <time>1970-01-01T00:00:00+00:00</time>
        <ele>1868.0</ele>
      </trkpt>
      <trkpt lat="44.457601" lon="6.85132">
        <time>1970-01-01T00:00:00+00:00</time>
        <ele>1877.0</ele>
      </trkpt>
      <trkpt lat="44.45762" lon="6.851307">
        <time>1970-01-01T00:00:00+00:00</time>
        <ele>1878.0</ele>
      </trkpt>
      <trkpt lat="44.457692" lon="6.851377">
        <time>1970-01-01T00:00:00+00:00</time>
        <ele>1879.0</ele>
      </trkpt>
      <trkpt lat="44.457802" lon="6.851411">
        <time>1970-01-01T00:00:00+00:00</time>
        <ele>1882.0</ele>
      </trkpt>
      <trkpt lat="44.458052" lon="6.851266">
        <time>1970-01-01T00:00:00+00:00</time>
        <ele>1891.0</ele>
      </trkpt>
      <trkpt lat="44.458115" lon="6.851263">
        <time>1970-01-01T00:00:00+00:00</time>
        <ele>1892.0</ele>
      </trkpt>
      <trkpt lat="44.458159" lon="6.851228">
        <time>1970-01-01T00:00:00+00:00</time>
        <ele>1893.0</ele>
      </trkpt>
      <trkpt lat="44.458225" lon="6.851214">
        <time>1970-01-01T00:00:00+00:00</time>
        <ele>1895.0</ele>
      </trkpt>
      <trkpt lat="44.458296" lon="6.851173">
        <time>1970-01-01T00:00:00+00:00</time>
        <ele>1898.0</ele>
      </trkpt>
      <trkpt lat="44.45833" lon="6.851121">
        <time>1970-01-01T00:00:00+00:00</time>
        <ele>1901.0</ele>
      </trkpt>
      <trkpt lat="44.458362" lon="6.851138">
        <time>1970-01-01T00:00:00+00:00</time>
        <ele>1901.0</ele>
      </trkpt>
      <trkpt lat="44.458408" lon="6.851098">
        <time>1970-01-01T00:00:00+00:00</time>
        <ele>1903.0</ele>
      </trkpt>
      <trkpt lat="44.45846" lon="6.851105">
        <time>1970-01-01T00:00:00+00:00</time>
        <ele>1904.0</ele>
      </trkpt>
      <trkpt lat="44.458521" lon="6.851043">
        <time>1970-01-01T00:00:00+00:00</time>
        <ele>1907.0</ele>
      </trkpt>
      <trkpt lat="44.458587" lon="6.851074">
        <time>1970-01-01T00:00:00+00:00</time>
        <ele>1908.0</ele>
      </trkpt>
      <trkpt lat="44.458637" lon="6.851028">
        <time>1970-01-01T00:00:00+00:00</time>
        <ele>1911.0</ele>
      </trkpt>
      <trkpt lat="44.4587" lon="6.85104">
        <time>1970-01-01T00:00:00+00:00</time>
        <ele>1913.0</ele>
      </trkpt>
      <trkpt lat="44.458783" lon="6.851016">
        <time>1970-01-01T00:00:00+00:00</time>
        <ele>1916.0</ele>
      </trkpt>
      <trkpt lat="44.459" lon="6.851025">
        <time>1970-01-01T00:00:00+00:00</time>
        <ele>1920.0</ele>
      </trkpt>
      <trkpt lat="44.459046" lon="6.851005">
        <time>1970-01-01T00:00:00+00:00</time>
        <ele>1922.0</ele>
      </trkpt>
      <trkpt lat="44.459126" lon="6.851082">
        <time>1970-01-01T00:00:00+00:00</time>
        <ele>1922.0</ele>
      </trkpt>
      <trkpt lat="44.459207" lon="6.851122">
        <time>1970-01-01T00:00:00+00:00</time>
        <ele>1923.0</ele>
      </trkpt>
      <trkpt lat="44.459513" lon="6.851232">
        <time>1970-01-01T00:00:00+00:00</time>
        <ele>1931.0</ele>
      </trkpt>
      <trkpt lat="44.459779" lon="6.851161">
        <time>1970-01-01T00:00:00+00:00</time>
        <ele>1941.0</ele>
      </trkpt>
      <trkpt lat="44.459971" lon="6.850931">
        <time>1970-01-01T00:00:00+00:00</time>
        <ele>1951.0</ele>
      </trkpt>
      <trkpt lat="44.460108" lon="6.850943">
        <time>1970-01-01T00:00:00+00:00</time>
        <ele>1954.0</ele>
      </trkpt>
      <trkpt lat="44.460225" lon="6.850701">
        <time>1970-01-01T00:00:00+00:00</time>
        <ele>1963.0</ele>
      </trkpt>
      <trkpt lat="44.460275" lon="6.850409">
        <time>1970-01-01T00:00:00+00:00</time>
        <ele>1970.0</ele>
      </trkpt>
      <trkpt lat="44.460288" lon="6.850211">
        <time>1970-01-01T00:00:00+00:00</time>
        <ele>1973.0</ele>
      </trkpt>
      <trkpt lat="44.460295" lon="6.850072">
        <time>1970-01-01T00:00:00+00:00</time>
        <ele>1974.0</ele>
      </trkpt>
      <trkpt lat="44.46035" lon="6.850006">
        <time>1970-01-01T00:00:00+00:00</time>
        <ele>1977.0</ele>
      </trkpt>
      <trkpt lat="44.460406" lon="6.850064">
        <time>1970-01-01T00:00:00+00:00</time>
        <ele>1979.0</ele>
      </trkpt>
      <trkpt lat="44.460482" lon="6.850076">
        <time>1970-01-01T00:00:00+00:00</time>
        <ele>1982.0</ele>
      </trkpt>
      <trkpt lat="44.460502" lon="6.850065">
        <time>1970-01-01T00:00:00+00:00</time>
        <ele>1983.0</ele>
      </trkpt>
      <trkpt lat="44.460509" lon="6.850022">
        <time>1970-01-01T00:00:00+00:00</time>
        <ele>1984.0</ele>
      </trkpt>
      <trkpt lat="44.460533" lon="6.849998">
        <time>1970-01-01T00:00:00+00:00</time>
        <ele>1985.0</ele>
      </trkpt>
      <trkpt lat="44.460617" lon="6.850014">
        <time>1970-01-01T00:00:00+00:00</time>
        <ele>1988.0</ele>
      </trkpt>
      <trkpt lat="44.460619" lon="6.849937">
        <time>1970-01-01T00:00:00+00:00</time>
        <ele>1989.0</ele>
      </trkpt>
      <trkpt lat="44.460635" lon="6.849916">
        <time>1970-01-01T00:00:00+00:00</time>
        <ele>1990.0</ele>
      </trkpt>
      <trkpt lat="44.460783" lon="6.849794">
        <time>1970-01-01T00:00:00+00:00</time>
        <ele>1998.0</ele>
      </trkpt>
      <trkpt lat="44.460891" lon="6.849737">
        <time>1970-01-01T00:00:00+00:00</time>
        <ele>2003.0</ele>
      </trkpt>
      <trkpt lat="44.460941" lon="6.849593">
        <time>1970-01-01T00:00:00+00:00</time>
        <ele>2006.0</ele>
      </trkpt>
      <trkpt lat="44.461047" lon="6.849443">
        <time>1970-01-01T00:00:00+00:00</time>
        <ele>2012.0</ele>
      </trkpt>
      <trkpt lat="44.461112" lon="6.849512">
        <time>1970-01-01T00:00:00+00:00</time>
        <ele>2014.0</ele>
      </trkpt>
      <trkpt lat="44.461166" lon="6.849512">
        <time>1970-01-01T00:00:00+00:00</time>
        <ele>2016.0</ele>
      </trkpt>
      <trkpt lat="44.461258" lon="6.849476">
        <time>1970-01-01T00:00:00+00:00</time>
        <ele>2020.0</ele>
      </trkpt>
      <trkpt lat="44.461274" lon="6.849449">
        <time>1970-01-01T00:00:00+00:00</time>
        <ele>2020.0</ele>
      </trkpt>
      <trkpt lat="44.461315" lon="6.849359">
        <time>1970-01-01T00:00:00+00:00</time>
        <ele>2023.0</ele>
      </trkpt>
      <trkpt lat="44.461323" lon="6.849289">
        <time>1970-01-01T00:00:00+00:00</time>
        <ele>2023.0</ele>
      </trkpt>
      <trkpt lat="44.461416" lon="6.849131">
        <time>1970-01-01T00:00:00+00:00</time>
        <ele>2028.0</ele>
      </trkpt>
      <trkpt lat="44.461474" lon="6.848994">
        <time>1970-01-01T00:00:00+00:00</time>
        <ele>2030.0</ele>
      </trkpt>
      <trkpt lat="44.461594" lon="6.848819">
        <time>1970-01-01T00:00:00+00:00</time>
        <ele>2034.0</ele>
      </trkpt>
      <trkpt lat="44.461636" lon="6.84861">
        <time>1970-01-01T00:00:00+00:00</time>
        <ele>2036.0</ele>
      </trkpt>
      <trkpt lat="44.46176" lon="6.848455">
        <time>1970-01-01T00:00:00+00:00</time>
        <ele>2039.0</ele>
      </trkpt>
      <trkpt lat="44.461813" lon="6.848423">
        <time>1970-01-01T00:00:00+00:00</time>
        <ele>2041.0</ele>
      </trkpt>
      <trkpt lat="44.461874" lon="6.848431">
        <time>1970-01-01T00:00:00+00:00</time>
        <ele>2043.0</ele>
      </trkpt>
      <trkpt lat="44.46192" lon="6.848364">
        <time>1970-01-01T00:00:00+00:00</time>
        <ele>2043.0</ele>
      </trkpt>
      <trkpt lat="44.46209" lon="6.848305">
        <time>1970-01-01T00:00:00+00:00</time>
        <ele>2047.0</ele>
      </trkpt>
      <trkpt lat="44.462135" lon="6.848281">
        <time>1970-01-01T00:00:00+00:00</time>
        <ele>2048.0</ele>
      </trkpt>
      <trkpt lat="44.462174" lon="6.848234">
        <time>1970-01-01T00:00:00+00:00</time>
        <ele>2049.0</ele>
      </trkpt>
      <trkpt lat="44.462236" lon="6.84823">
        <time>1970-01-01T00:00:00+00:00</time>
        <ele>2051.0</ele>
      </trkpt>
      <trkpt lat="44.462322" lon="6.848125">
        <time>1970-01-01T00:00:00+00:00</time>
        <ele>2053.0</ele>
      </trkpt>
      <trkpt lat="44.462523" lon="6.848095">
        <time>1970-01-01T00:00:00+00:00</time>
        <ele>2059.0</ele>
      </trkpt>
      <trkpt lat="44.462711" lon="6.847695">
        <time>1970-01-01T00:00:00+00:00</time>
        <ele>2064.0</ele>
      </trkpt>
      <trkpt lat="44.462834" lon="6.847569">
        <time>1970-01-01T00:00:00+00:00</time>
        <ele>2067.0</ele>
      </trkpt>
      <trkpt lat="44.462929" lon="6.847616">
        <time>1970-01-01T00:00:00+00:00</time>
        <ele>2069.0</ele>
      </trkpt>
      <trkpt lat="44.463073" lon="6.847581">
        <time>1970-01-01T00:00:00+00:00</time>
        <ele>2072.0</ele>
      </trkpt>
      <trkpt lat="44.463313" lon="6.847655">
        <time>1970-01-01T00:00:00+00:00</time>
        <ele>2077.0</ele>
      </trkpt>
      <trkpt lat="44.463639" lon="6.847904">
        <time>1970-01-01T00:00:00+00:00</time>
        <ele>2084.0</ele>
      </trkpt>
      <trkpt lat="44.463772" lon="6.848043">
        <time>1970-01-01T00:00:00+00:00</time>
        <ele>2088.0</ele>
      </trkpt>
      <trkpt lat="44.464035" lon="6.848336">
        <time>1970-01-01T00:00:00+00:00</time>
        <ele>2096.0</ele>
      </trkpt>
      <trkpt lat="44.464222" lon="6.848572">
        <time>1970-01-01T00:00:00+00:00</time>
        <ele>2101.0</ele>
      </trkpt>
      <trkpt lat="44.464403" lon="6.848745">
        <time>1970-01-01T00:00:00+00:00</time>
        <ele>2106.0</ele>
      </trkpt>
      <trkpt lat="44.464485" lon="6.849211">
        <time>1970-01-01T00:00:00+00:00</time>
        <ele>2110.0</ele>
      </trkpt>
      <trkpt lat="44.464594" lon="6.849455">
        <time>1970-01-01T00:00:00+00:00</time>
        <ele>2114.0</ele>
      </trkpt>
      <trkpt lat="44.464621" lon="6.849775">
        <time>1970-01-01T00:00:00+00:00</time>
        <ele>2116.0</ele>
      </trkpt>
      <trkpt lat="44.464653" lon="6.849931">
        <time>1970-01-01T00:00:00+00:00</time>
        <ele>2117.0</ele>
      </trkpt>
      <trkpt lat="44.464923" lon="6.850415">
        <time>1970-01-01T00:00:00+00:00</time>
        <ele>2126.0</ele>
      </trkpt>
      <trkpt lat="44.464946" lon="6.850034">
        <time>1970-01-01T00:00:00+00:00</time>
        <ele>2131.0</ele>
      </trkpt>
      <trkpt lat="44.465031" lon="6.849836">
        <time>1970-01-01T00:00:00+00:00</time>
        <ele>2136.0</ele>
      </trkpt>
      <trkpt lat="44.465154" lon="6.850245">
        <time>1970-01-01T00:00:00+00:00</time>
        <ele>2140.0</ele>
      </trkpt>
      <trkpt lat="44.465175" lon="6.850237">
        <time>1970-01-01T00:00:00+00:00</time>
        <ele>2141.0</ele>
      </trkpt>
      <trkpt lat="44.465499" lon="6.850757">
        <time>1970-01-01T00:00:00+00:00</time>
        <ele>2156.0</ele>
      </trkpt>
      <trkpt lat="44.465519" lon="6.850494">
        <time>1970-01-01T00:00:00+00:00</time>
        <ele>2161.0</ele>
      </trkpt>
      <trkpt lat="44.465605" lon="6.850193">
        <time>1970-01-01T00:00:00+00:00</time>
        <ele>2169.0</ele>
      </trkpt>
      <trkpt lat="44.465688" lon="6.850003">
        <time>1970-01-01T00:00:00+00:00</time>
        <ele>2174.0</ele>
      </trkpt>
      <trkpt lat="44.465809" lon="6.849934">
        <time>1970-01-01T00:00:00+00:00</time>
        <ele>2181.0</ele>
      </trkpt>
      <trkpt lat="44.465899" lon="6.849851">
        <time>1970-01-01T00:00:00+00:00</time>
        <ele>2185.0</ele>
      </trkpt>
      <trkpt lat="44.465941" lon="6.849851">
        <time>1970-01-01T00:00:00+00:00</time>
        <ele>2187.0</ele>
      </trkpt>
      <trkpt lat="44.466033" lon="6.84979">
        <time>1970-01-01T00:00:00+00:00</time>
        <ele>2192.0</ele>
      </trkpt>
      <trkpt lat="44.466021" lon="6.849694">
        <time>1970-01-01T00:00:00+00:00</time>
        <ele>2190.0</ele>
      </trkpt>
      <trkpt lat="44.466078" lon="6.849495">
        <time>1970-01-01T00:00:00+00:00</time>
        <ele>2191.0</ele>
      </trkpt>
      <trkpt lat="44.466118" lon="6.8497">
        <time>1970-01-01T00:00:00+00:00</time>
        <ele>2196.0</ele>
      </trkpt>
      <trkpt lat="44.466244" lon="6.849508">
        <time>1970-01-01T00:00:00+00:00</time>
        <ele>2200.0</ele>
      </trkpt>
      <trkpt lat="44.466255" lon="6.849675">
        <time>1970-01-01T00:00:00+00:00</time>
        <ele>2202.0</ele>
      </trkpt>
      <trkpt lat="44.466285" lon="6.849723">
        <time>1970-01-01T00:00:00+00:00</time>
        <ele>2205.0</ele>
      </trkpt>
      <trkpt lat="44.466408" lon="6.849507">
        <time>1970-01-01T00:00:00+00:00</time>
        <ele>2209.0</ele>
      </trkpt>
      <trkpt lat="44.46642" lon="6.849746">
        <time>1970-01-01T00:00:00+00:00</time>
        <ele>2213.0</ele>
      </trkpt>
      <trkpt lat="44.466464" lon="6.849789">
        <time>1970-01-01T00:00:00+00:00</time>
        <ele>2215.0</ele>
      </trkpt>
      <trkpt lat="44.466526" lon="6.84974">
        <time>1970-01-01T00:00:00+00:00</time>
        <ele>2218.0</ele>
      </trkpt>
      <trkpt lat="44.466614" lon="6.849759">
        <time>1970-01-01T00:00:00+00:00</time>
        <ele>2222.0</ele>
      </trkpt>
      <trkpt lat="44.466688" lon="6.849817">
        <time>1970-01-01T00:00:00+00:00</time>
        <ele>2225.0</ele>
      </trkpt>
      <trkpt lat="44.466818" lon="6.849821">
        <time>1970-01-01T00:00:00+00:00</time>
        <ele>2228.0</ele>
      </trkpt>
      <trkpt lat="44.467074" lon="6.84972">
        <time>1970-01-01T00:00:00+00:00</time>
        <ele>2238.0</ele>
      </trkpt>
      <trkpt lat="44.46718" lon="6.849769">
        <time>1970-01-01T00:00:00+00:00</time>
        <ele>2243.0</ele>
      </trkpt>
      <trkpt lat="44.467391" lon="6.849658">
        <time>1970-01-01T00:00:00+00:00</time>
        <ele>2251.0</ele>
      </trkpt>
      <trkpt lat="44.467492" lon="6.849671">
        <time>1970-01-01T00:00:00+00:00</time>
        <ele>2255.0</ele>
      </trkpt>
      <trkpt lat="44.467556" lon="6.849814">
        <time>1970-01-01T00:00:00+00:00</time>
        <ele>2259.0</ele>
      </trkpt>
      <trkpt lat="44.467758" lon="6.850038">
        <time>1970-01-01T00:00:00+00:00</time>
        <ele>2267.0</ele>
      </trkpt>
      <trkpt lat="44.468198" lon="6.850306">
        <time>1970-01-01T00:00:00+00:00</time>
        <ele>2281.0</ele>
      </trkpt>
      <trkpt lat="44.468354" lon="6.850315">
        <time>1970-01-01T00:00:00+00:00</time>
        <ele>2285.0</ele>
      </trkpt>
      <trkpt lat="44.468389" lon="6.850362">
        <time>1970-01-01T00:00:00+00:00</time>
        <ele>2286.0</ele>
      </trkpt>
      <trkpt lat="44.468865" lon="6.850464">
        <time>1970-01-01T00:00:00+00:00</time>
        <ele>2299.0</ele>
      </trkpt>
      <trkpt lat="44.468977" lon="6.850548">
        <time>1970-01-01T00:00:00+00:00</time>
        <ele>2303.0</ele>
      </trkpt>
      <trkpt lat="44.469747" lon="6.850531">
        <time>1970-01-01T00:00:00+00:00</time>
        <ele>2324.0</ele>
      </trkpt>
      <trkpt lat="44.469934" lon="6.850436">
        <time>1970-01-01T00:00:00+00:00</time>
        <ele>2324.0</ele>
      </trkpt>
      <trkpt lat="44.47002" lon="6.850458">
        <time>1970-01-01T00:00:00+00:00</time>
        <ele>2326.0</ele>
      </trkpt>
      <trkpt lat="44.470537" lon="6.850311">
        <time>1970-01-01T00:00:00+00:00</time>
        <ele>2332.0</ele>
      </trkpt>
      <trkpt lat="44.470638" lon="6.850197">
        <time>1970-01-01T00:00:00+00:00</time>
        <ele>2333.0</ele>
      </trkpt>
      <trkpt lat="44.470794" lon="6.850197">
        <time>1970-01-01T00:00:00+00:00</time>
        <ele>2337.0</ele>
      </trkpt>
      <trkpt lat="44.471014" lon="6.850105">
        <time>1970-01-01T00:00:00+00:00</time>
        <ele>2344.0</ele>
      </trkpt>
      <trkpt lat="44.47125" lon="6.849816">
        <time>1970-01-01T00:00:00+00:00</time>
        <ele>2350.0</ele>
      </trkpt>
      <trkpt lat="44.471301" lon="6.849588">
        <time>1970-01-01T00:00:00+00:00</time>
        <ele>2352.0</ele>
      </trkpt>
      <trkpt lat="44.471437" lon="6.84943">
        <time>1970-01-01T00:00:00+00:00</time>
        <ele>2361.0</ele>
      </trkpt>
      <trkpt lat="44.471612" lon="6.849095">
        <time>1970-01-01T00:00:00+00:00</time>
        <ele>2369.0</ele>
      </trkpt>
      <trkpt lat="44.47177" lon="6.848948">
        <time>1970-01-01T00:00:00+00:00</time>
        <ele>2376.0</ele>
      </trkpt>
      <trkpt lat="44.471825" lon="6.848791">
        <time>1970-01-01T00:00:00+00:00</time>
        <ele>2379.0</ele>
      </trkpt>
      <trkpt lat="44.471893" lon="6.84868">
        <time>1970-01-01T00:00:00+00:00</time>
        <ele>2383.0</ele>
      </trkpt>
      <trkpt lat="44.472032" lon="6.848711">
        <time>1970-01-01T00:00:00+00:00</time>
        <ele>2391.0</ele>
      </trkpt>
      <trkpt lat="44.472311" lon="6.849153">
        <time>1970-01-01T00:00:00+00:00</time>
        <ele>2407.0</ele>
      </trkpt>
      <trkpt lat="44.472325" lon="6.849274">
        <time>1970-01-01T00:00:00+00:00</time>
        <ele>2409.0</ele>
      </trkpt>
      <trkpt lat="44.472419" lon="6.849319">
        <time>1970-01-01T00:00:00+00:00</time>
        <ele>2416.0</ele>
      </trkpt>
      <trkpt lat="44.472457" lon="6.849367">
        <time>1970-01-01T00:00:00+00:00</time>
        <ele>2419.0</ele>
      </trkpt>
      <trkpt lat="44.472551" lon="6.849405">
        <time>1970-01-01T00:00:00+00:00</time>
        <ele>2425.0</ele>
      </trkpt>
      <trkpt lat="44.472579" lon="6.849546">
        <time>1970-01-01T00:00:00+00:00</time>
        <ele>2429.0</ele>
      </trkpt>
      <trkpt lat="44.47281" lon="6.849267">
        <time>1970-01-01T00:00:00+00:00</time>
        <ele>2433.0</ele>
      </trkpt>
      <trkpt lat="44.472851" lon="6.849336">
        <time>1970-01-01T00:00:00+00:00</time>
        <ele>2436.0</ele>
      </trkpt>
      <trkpt lat="44.472897" lon="6.849574">
        <time>1970-01-01T00:00:00+00:00</time>
        <ele>2440.0</ele>
      </trkpt>
      <trkpt lat="44.47315" lon="6.849614">
        <time>1970-01-01T00:00:00+00:00</time>
        <ele>2448.0</ele>
      </trkpt>
      <trkpt lat="44.473428" lon="6.849532">
        <time>1970-01-01T00:00:00+00:00</time>
        <ele>2455.0</ele>
      </trkpt>
      <trkpt lat="44.47357" lon="6.849739">
        <time>1970-01-01T00:00:00+00:00</time>
        <ele>2460.0</ele>
      </trkpt>
      <trkpt lat="44.473611" lon="6.849748">
        <time>1970-01-01T00:00:00+00:00</time>
        <ele>2462.0</ele>
      </trkpt>
      <trkpt lat="44.473972" lon="6.850175">
        <time>1970-01-01T00:00:00+00:00</time>
        <ele>2471.0</ele>
      </trkpt>
      <trkpt lat="44.474035" lon="6.850351">
        <time>1970-01-01T00:00:00+00:00</time>
        <ele>2475.0</ele>
      </trkpt>
      <trkpt lat="44.474057" lon="6.85077">
        <time>1970-01-01T00:00:00+00:00</time>
        <ele>2479.0</ele>
      </trkpt>
      <trkpt lat="44.474157" lon="6.851032">
        <time>1970-01-01T00:00:00+00:00</time>
        <ele>2485.0</ele>
      </trkpt>
      <trkpt lat="44.474211" lon="6.851252">
        <time>1970-01-01T00:00:00+00:00</time>
        <ele>2489.0</ele>
      </trkpt>
      <trkpt lat="44.474324" lon="6.851503">
        <time>1970-01-01T00:00:00+00:00</time>
        <ele>2497.0</ele>
      </trkpt>
      <trkpt lat="44.474397" lon="6.851601">
        <time>1970-01-01T00:00:00+00:00</time>
        <ele>2502.0</ele>
      </trkpt>
      <trkpt lat="44.474451" lon="6.85093">
        <time>1970-01-01T00:00:00+00:00</time>
        <ele>2507.0</ele>
      </trkpt>
      <trkpt lat="44.474771" lon="6.851617">
        <time>1970-01-01T00:00:00+00:00</time>
        <ele>2522.0</ele>
      </trkpt>
      <trkpt lat="44.474691" lon="6.850961">
        <time>1970-01-01T00:00:00+00:00</time>
        <ele>2524.0</ele>
      </trkpt>
      <trkpt lat="44.474804" lon="6.851251">
        <time>1970-01-01T00:00:00+00:00</time>
        <ele>2527.0</ele>
      </trkpt>
      <trkpt lat="44.475116" lon="6.851746">
        <time>1970-01-01T00:00:00+00:00</time>
        <ele>2543.0</ele>
      </trkpt>
      <trkpt lat="44.475143" lon="6.851957">
        <time>1970-01-01T00:00:00+00:00</time>
        <ele>2545.0</ele>
      </trkpt>
      <trkpt lat="44.475078" lon="6.852234">
        <time>1970-01-01T00:00:00+00:00</time>
        <ele>2546.0</ele>
      </trkpt>
      <trkpt lat="44.475085" lon="6.852421">
        <time>1970-01-01T00:00:00+00:00</time>
        <ele>2548.0</ele>
      </trkpt>
      <trkpt lat="44.475045" lon="6.852541">
        <time>1970-01-01T00:00:00+00:00</time>
        <ele>2548.0</ele>
      </trkpt>
      <trkpt lat="44.47506" lon="6.852786">
        <time>1970-01-01T00:00:00+00:00</time>
        <ele>2550.0</ele>
      </trkpt>
      <trkpt lat="44.474539" lon="6.853804">
        <time>1970-01-01T00:00:00+00:00</time>
        <ele>2568.0</ele>
      </trkpt>
      <trkpt lat="44.474359" lon="6.85409">
        <time>1970-01-01T00:00:00+00:00</time>
        <ele>2575.0</ele>
      </trkpt>
      <trkpt lat="44.474254" lon="6.854372">
        <time>1970-01-01T00:00:00+00:00</time>
        <ele>2583.0</ele>
      </trkpt>
      <trkpt lat="44.47421" lon="6.854582">
        <time>1970-01-01T00:00:00+00:00</time>
        <ele>2590.0</ele>
      </trkpt>
      <trkpt lat="44.474165" lon="6.8545">
        <time>1970-01-01T00:00:00+00:00</time>
        <ele>2593.0</ele>
      </trkpt>
      <trkpt lat="44.474178" lon="6.854102">
        <time>1970-01-01T00:00:00+00:00</time>
        <ele>2590.0</ele>
      </trkpt>
      <trkpt lat="44.47429" lon="6.853828">
        <time>1970-01-01T00:00:00+00:00</time>
        <ele>2586.0</ele>
      </trkpt>
      <trkpt lat="44.474415" lon="6.853593">
        <time>1970-01-01T00:00:00+00:00</time>
        <ele>2581.0</ele>
      </trkpt>
      <trkpt lat="44.474406" lon="6.853525">
        <time>1970-01-01T00:00:00+00:00</time>
        <ele>2583.0</ele>
      </trkpt>
      <trkpt lat="44.474323" lon="6.853608">
        <time>1970-01-01T00:00:00+00:00</time>
        <ele>2587.0</ele>
      </trkpt>
      <trkpt lat="44.474049" lon="6.854077">
        <time>1970-01-01T00:00:00+00:00</time>
        <ele>2601.0</ele>
      </trkpt>
      <trkpt lat="44.473929" lon="6.854459">
        <time>1970-01-01T00:00:00+00:00</time>
        <ele>2609.0</ele>
      </trkpt>
      <trkpt lat="44.473936" lon="6.854732">
        <time>1970-01-01T00:00:00+00:00</time>
        <ele>2614.0</ele>
      </trkpt>
      <trkpt lat="44.473851" lon="6.854566">
        <time>1970-01-01T00:00:00+00:00</time>
        <ele>2614.0</ele>
      </trkpt>
      <trkpt lat="44.473855" lon="6.854265">
        <time>1970-01-01T00:00:00+00:00</time>
        <ele>2612.0</ele>
      </trkpt>
      <trkpt lat="44.473841" lon="6.854217">
        <time>1970-01-01T00:00:00+00:00</time>
        <ele>2613.0</ele>
      </trkpt>
      <trkpt lat="44.47381" lon="6.854243">
        <time>1970-01-01T00:00:00+00:00</time>
        <ele>2615.0</ele>
      </trkpt>
      <trkpt lat="44.473768" lon="6.854555">
        <time>1970-01-01T00:00:00+00:00</time>
        <ele>2618.0</ele>
      </trkpt>
      <trkpt lat="44.473854" lon="6.854906">
        <time>1970-01-01T00:00:00+00:00</time>
        <ele>2623.0</ele>
      </trkpt>
      <trkpt lat="44.473763" lon="6.854832">
        <time>1970-01-01T00:00:00+00:00</time>
        <ele>2625.0</ele>
      </trkpt>
      <trkpt lat="44.473662" lon="6.854422">
        <time>1970-01-01T00:00:00+00:00</time>
        <ele>2624.0</ele>
      </trkpt>
      <trkpt lat="44.473647" lon="6.854473">
        <time>1970-01-01T00:00:00+00:00</time>
        <ele>2626.0</ele>
      </trkpt>
      <trkpt lat="44.473647" lon="6.854656">
        <time>1970-01-01T00:00:00+00:00</time>
        <ele>2629.0</ele>
      </trkpt>
      <trkpt lat="44.473665" lon="6.854806">
        <time>1970-01-01T00:00:00+00:00</time>
        <ele>2631.0</ele>
      </trkpt>
      <trkpt lat="44.47371" lon="6.855007">
        <time>1970-01-01T00:00:00+00:00</time>
        <ele>2634.0</ele>
      </trkpt>
      <trkpt lat="44.473807" lon="6.855212">
        <time>1970-01-01T00:00:00+00:00</time>
        <ele>2635.0</ele>
      </trkpt>
      <trkpt lat="44.473781" lon="6.855242">
        <time>1970-01-01T00:00:00+00:00</time>
        <ele>2637.0</ele>
      </trkpt>
      <trkpt lat="44.473597" lon="6.854926">
        <time>1970-01-01T00:00:00+00:00</time>
        <ele>2638.0</ele>
      </trkpt>
      <trkpt lat="44.473559" lon="6.854904">
        <time>1970-01-01T00:00:00+00:00</time>
        <ele>2640.0</ele>
      </trkpt>
      <trkpt lat="44.473582" lon="6.855044">
        <time>1970-01-01T00:00:00+00:00</time>
        <ele>2642.0</ele>
      </trkpt>
      <trkpt lat="44.473665" lon="6.855254">
        <time>1970-01-01T00:00:00+00:00</time>
        <ele>2643.0</ele>
      </trkpt>
      <trkpt lat="44.473757" lon="6.855376">
        <time>1970-01-01T00:00:00+00:00</time>
        <ele>2641.0</ele>
      </trkpt>
      <trkpt lat="44.473841" lon="6.855421">
        <time>1970-01-01T00:00:00+00:00</time>
        <ele>2639.0</ele>
      </trkpt>
      <trkpt lat="44.473822" lon="6.855459">
        <time>1970-01-01T00:00:00+00:00</time>
        <ele>2640.0</ele>
      </trkpt>
      <trkpt lat="44.473724" lon="6.855422">
        <time>1970-01-01T00:00:00+00:00</time>
        <ele>2644.0</ele>
      </trkpt>
      <trkpt lat="44.473601" lon="6.85529">
        <time>1970-01-01T00:00:00+00:00</time>
        <ele>2647.0</ele>
      </trkpt>
      <trkpt lat="44.473448" lon="6.855006">
        <time>1970-01-01T00:00:00+00:00</time>
        <ele>2648.0</ele>
      </trkpt>
      <trkpt lat="44.473288" lon="6.854487">
        <time>1970-01-01T00:00:00+00:00</time>
        <ele>2645.0</ele>
      </trkpt>
      <trkpt lat="44.473261" lon="6.854521">
        <time>1970-01-01T00:00:00+00:00</time>
        <ele>2646.0</ele>
      </trkpt>
      <trkpt lat="44.473301" lon="6.854695">
        <time>1970-01-01T00:00:00+00:00</time>
        <ele>2648.0</ele>
      </trkpt>
      <trkpt lat="44.47328" lon="6.854755">
        <time>1970-01-01T00:00:00+00:00</time>
        <ele>2649.0</ele>
      </trkpt>
      <trkpt lat="44.473257" lon="6.854938">
        <time>1970-01-01T00:00:00+00:00</time>
        <ele>2652.0</ele>
      </trkpt>
      <trkpt lat="44.473208" lon="6.855117">
        <time>1970-01-01T00:00:00+00:00</time>
        <ele>2654.0</ele>
      </trkpt>
      <trkpt lat="44.473158" lon="6.855716">
        <time>1970-01-01T00:00:00+00:00</time>
        <ele>2670.0</ele>
      </trkpt>
      <trkpt lat="44.473135" lon="6.855826">
        <time>1970-01-01T00:00:00+00:00</time>
        <ele>2673.0</ele>
      </trkpt>
      <trkpt lat="44.473112" lon="6.855858">
        <time>1970-01-01T00:00:00+00:00</time>
        <ele>2673.0</ele>
      </trkpt>
      <trkpt lat="44.473095" lon="6.856477">
        <time>1970-01-01T00:00:00+00:00</time>
        <ele>2698.0</ele>
      </trkpt>
      <trkpt lat="44.473175" lon="6.857513">
        <time>1970-01-01T00:00:00+00:00</time>
        <ele>2736.0</ele>
      </trkpt>
      <trkpt lat="44.473188" lon="6.857789">
        <time>1970-01-01T00:00:00+00:00</time>
        <ele>2739.0</ele>
      </trkpt>
      <trkpt lat="44.473175" lon="6.857909">
        <time>1970-01-01T00:00:00+00:00</time>
        <ele>2741.0</ele>
      </trkpt>
      <trkpt lat="44.473122" lon="6.85781">
        <time>1970-01-01T00:00:00+00:00</time>
        <ele>2743.0</ele>
      </trkpt>
      <trkpt lat="44.472896" lon="6.857555">
        <time>1970-01-01T00:00:00+00:00</time>
        <ele>2744.0</ele>
      </trkpt>
      <trkpt lat="44.472878" lon="6.857555">
        <time>1970-01-01T00:00:00+00:00</time>
        <ele>2745.0</ele>
      </trkpt>
      <trkpt lat="44.472875" lon="6.857588">
        <time>1970-01-01T00:00:00+00:00</time>
        <ele>2746.0</ele>
      </trkpt>
      <trkpt lat="44.472976" lon="6.857738">
        <time>1970-01-01T00:00:00+00:00</time>
        <ele>2748.0</ele>
      </trkpt>
      <trkpt lat="44.472992" lon="6.857789">
        <time>1970-01-01T00:00:00+00:00</time>
        <ele>2749.0</ele>
      </trkpt>
      <trkpt lat="44.472975" lon="6.857826">
        <time>1970-01-01T00:00:00+00:00</time>
        <ele>2750.0</ele>
      </trkpt>
      <trkpt lat="44.472788" lon="6.857673">
        <time>1970-01-01T00:00:00+00:00</time>
        <ele>2750.0</ele>
      </trkpt>
      <trkpt lat="44.472743" lon="6.85766">
        <time>1970-01-01T00:00:00+00:00</time>
        <ele>2749.0</ele>
      </trkpt>
      <trkpt lat="44.472745" lon="6.857694">
        <time>1970-01-01T00:00:00+00:00</time>
        <ele>2751.0</ele>
      </trkpt>
      <trkpt lat="44.472824" lon="6.857846">
        <time>1970-01-01T00:00:00+00:00</time>
        <ele>2755.0</ele>
      </trkpt>
      <trkpt lat="44.472896" lon="6.858152">
        <time>1970-01-01T00:00:00+00:00</time>
        <ele>2756.0</ele>
      </trkpt>
      <trkpt lat="44.472884" lon="6.858427">
        <time>1970-01-01T00:00:00+00:00</time>
        <ele>2754.0</ele>
      </trkpt>
      <trkpt lat="44.472823" lon="6.858411">
        <time>1970-01-01T00:00:00+00:00</time>
        <ele>2757.0</ele>
      </trkpt>
      <trkpt lat="44.472788" lon="6.858182">
        <time>1970-01-01T00:00:00+00:00</time>
        <ele>2759.0</ele>
      </trkpt>
      <trkpt lat="44.472709" lon="6.85801">
        <time>1970-01-01T00:00:00+00:00</time>
        <ele>2759.0</ele>
      </trkpt>
      <trkpt lat="44.472673" lon="6.857993">
        <time>1970-01-01T00:00:00+00:00</time>
        <ele>2759.0</ele>
      </trkpt>
      <trkpt lat="44.472665" lon="6.858136">
        <time>1970-01-01T00:00:00+00:00</time>
        <ele>2760.0</ele>
      </trkpt>
      <trkpt lat="44.472665" lon="6.858136">
        <time>1970-01-01T00:00:00+00:00</time>
        <ele>2760.0</ele>
      </trkpt>
      <trkpt lat="44.472673" lon="6.857993">
        <time>1970-01-01T00:00:00+00:00</time>
        <ele>2759.0</ele>
      </trkpt>
      <trkpt lat="44.472709" lon="6.85801">
        <time>1970-01-01T00:00:00+00:00</time>
        <ele>2759.0</ele>
      </trkpt>
      <trkpt lat="44.472788" lon="6.858182">
        <time>1970-01-01T00:00:00+00:00</time>
        <ele>2759.0</ele>
      </trkpt>
      <trkpt lat="44.472823" lon="6.858411">
        <time>1970-01-01T00:00:00+00:00</time>
        <ele>2757.0</ele>
      </trkpt>
      <trkpt lat="44.472884" lon="6.858427">
        <time>1970-01-01T00:00:00+00:00</time>
        <ele>2754.0</ele>
      </trkpt>
      <trkpt lat="44.472896" lon="6.858152">
        <time>1970-01-01T00:00:00+00:00</time>
        <ele>2756.0</ele>
      </trkpt>
      <trkpt lat="44.472824" lon="6.857846">
        <time>1970-01-01T00:00:00+00:00</time>
        <ele>2755.0</ele>
      </trkpt>
      <trkpt lat="44.472745" lon="6.857694">
        <time>1970-01-01T00:00:00+00:00</time>
        <ele>2751.0</ele>
      </trkpt>
      <trkpt lat="44.472743" lon="6.85766">
        <time>1970-01-01T00:00:00+00:00</time>
        <ele>2749.0</ele>
      </trkpt>
      <trkpt lat="44.472788" lon="6.857673">
        <time>1970-01-01T00:00:00+00:00</time>
        <ele>2750.0</ele>
      </trkpt>
      <trkpt lat="44.472975" lon="6.857826">
        <time>1970-01-01T00:00:00+00:00</time>
        <ele>2750.0</ele>
      </trkpt>
      <trkpt lat="44.472992" lon="6.857789">
        <time>1970-01-01T00:00:00+00:00</time>
        <ele>2749.0</ele>
      </trkpt>
      <trkpt lat="44.472976" lon="6.857738">
        <time>1970-01-01T00:00:00+00:00</time>
        <ele>2748.0</ele>
      </trkpt>
      <trkpt lat="44.472875" lon="6.857588">
        <time>1970-01-01T00:00:00+00:00</time>
        <ele>2746.0</ele>
      </trkpt>
      <trkpt lat="44.472878" lon="6.857555">
        <time>1970-01-01T00:00:00+00:00</time>
        <ele>2745.0</ele>
      </trkpt>
      <trkpt lat="44.472896" lon="6.857555">
        <time>1970-01-01T00:00:00+00:00</time>
        <ele>2744.0</ele>
      </trkpt>
      <trkpt lat="44.473122" lon="6.85781">
        <time>1970-01-01T00:00:00+00:00</time>
        <ele>2743.0</ele>
      </trkpt>
      <trkpt lat="44.473175" lon="6.857909">
        <time>1970-01-01T00:00:00+00:00</time>
        <ele>2741.0</ele>
      </trkpt>
      <trkpt lat="44.473188" lon="6.857789">
        <time>1970-01-01T00:00:00+00:00</time>
        <ele>2739.0</ele>
      </trkpt>
      <trkpt lat="44.473175" lon="6.857513">
        <time>1970-01-01T00:00:00+00:00</time>
        <ele>2736.0</ele>
      </trkpt>
      <trkpt lat="44.473095" lon="6.856477">
        <time>1970-01-01T00:00:00+00:00</time>
        <ele>2698.0</ele>
      </trkpt>
      <trkpt lat="44.473112" lon="6.855858">
        <time>1970-01-01T00:00:00+00:00</time>
        <ele>2673.0</ele>
      </trkpt>
      <trkpt lat="44.473135" lon="6.855826">
        <time>1970-01-01T00:00:00+00:00</time>
        <ele>2673.0</ele>
      </trkpt>
      <trkpt lat="44.473158" lon="6.855716">
        <time>1970-01-01T00:00:00+00:00</time>
        <ele>2670.0</ele>
      </trkpt>
      <trkpt lat="44.473208" lon="6.855117">
        <time>1970-01-01T00:00:00+00:00</time>
        <ele>2654.0</ele>
      </trkpt>
      <trkpt lat="44.473257" lon="6.854938">
        <time>1970-01-01T00:00:00+00:00</time>
        <ele>2652.0</ele>
      </trkpt>
      <trkpt lat="44.47328" lon="6.854755">
        <time>1970-01-01T00:00:00+00:00</time>
        <ele>2649.0</ele>
      </trkpt>
      <trkpt lat="44.473301" lon="6.854695">
        <time>1970-01-01T00:00:00+00:00</time>
        <ele>2648.0</ele>
      </trkpt>
      <trkpt lat="44.473261" lon="6.854521">
        <time>1970-01-01T00:00:00+00:00</time>
        <ele>2646.0</ele>
      </trkpt>
      <trkpt lat="44.473288" lon="6.854487">
        <time>1970-01-01T00:00:00+00:00</time>
        <ele>2645.0</ele>
      </trkpt>
      <trkpt lat="44.473448" lon="6.855006">
        <time>1970-01-01T00:00:00+00:00</time>
        <ele>2648.0</ele>
      </trkpt>
      <trkpt lat="44.473601" lon="6.85529">
        <time>1970-01-01T00:00:00+00:00</time>
        <ele>2647.0</ele>
      </trkpt>
      <trkpt lat="44.473724" lon="6.855422">
        <time>1970-01-01T00:00:00+00:00</time>
        <ele>2644.0</ele>
      </trkpt>
      <trkpt lat="44.473822" lon="6.855459">
        <time>1970-01-01T00:00:00+00:00</time>
        <ele>2640.0</ele>
      </trkpt>
      <trkpt lat="44.473841" lon="6.855421">
        <time>1970-01-01T00:00:00+00:00</time>
        <ele>2639.0</ele>
      </trkpt>
      <trkpt lat="44.473757" lon="6.855376">
        <time>1970-01-01T00:00:00+00:00</time>
        <ele>2641.0</ele>
      </trkpt>
      <trkpt lat="44.473665" lon="6.855254">
        <time>1970-01-01T00:00:00+00:00</time>
        <ele>2643.0</ele>
      </trkpt>
      <trkpt lat="44.473582" lon="6.855044">
        <time>1970-01-01T00:00:00+00:00</time>
        <ele>2642.0</ele>
      </trkpt>
      <trkpt lat="44.473559" lon="6.854904">
        <time>1970-01-01T00:00:00+00:00</time>
        <ele>2640.0</ele>
      </trkpt>
      <trkpt lat="44.473597" lon="6.854926">
        <time>1970-01-01T00:00:00+00:00</time>
        <ele>2638.0</ele>
      </trkpt>
      <trkpt lat="44.473781" lon="6.855242">
        <time>1970-01-01T00:00:00+00:00</time>
        <ele>2637.0</ele>
      </trkpt>
      <trkpt lat="44.473807" lon="6.855212">
        <time>1970-01-01T00:00:00+00:00</time>
        <ele>2635.0</ele>
      </trkpt>
      <trkpt lat="44.47371" lon="6.855007">
        <time>1970-01-01T00:00:00+00:00</time>
        <ele>2634.0</ele>
      </trkpt>
      <trkpt lat="44.473665" lon="6.854806">
        <time>1970-01-01T00:00:00+00:00</time>
        <ele>2631.0</ele>
      </trkpt>
      <trkpt lat="44.473647" lon="6.854656">
        <time>1970-01-01T00:00:00+00:00</time>
        <ele>2629.0</ele>
      </trkpt>
      <trkpt lat="44.473647" lon="6.854473">
        <time>1970-01-01T00:00:00+00:00</time>
        <ele>2626.0</ele>
      </trkpt>
      <trkpt lat="44.473662" lon="6.854422">
        <time>1970-01-01T00:00:00+00:00</time>
        <ele>2624.0</ele>
      </trkpt>
      <trkpt lat="44.473763" lon="6.854832">
        <time>1970-01-01T00:00:00+00:00</time>
        <ele>2625.0</ele>
      </trkpt>
      <trkpt lat="44.473854" lon="6.854906">
        <time>1970-01-01T00:00:00+00:00</time>
        <ele>2623.0</ele>
      </trkpt>
      <trkpt lat="44.473768" lon="6.854555">
        <time>1970-01-01T00:00:00+00:00</time>
        <ele>2618.0</ele>
      </trkpt>
      <trkpt lat="44.47381" lon="6.854243">
        <time>1970-01-01T00:00:00+00:00</time>
        <ele>2615.0</ele>
      </trkpt>
      <trkpt lat="44.473841" lon="6.854217">
        <time>1970-01-01T00:00:00+00:00</time>
        <ele>2613.0</ele>
      </trkpt>
      <trkpt lat="44.473855" lon="6.854265">
        <time>1970-01-01T00:00:00+00:00</time>
        <ele>2612.0</ele>
      </trkpt>
      <trkpt lat="44.473851" lon="6.854566">
        <time>1970-01-01T00:00:00+00:00</time>
        <ele>2614.0</ele>
      </trkpt>
      <trkpt lat="44.473936" lon="6.854732">
        <time>1970-01-01T00:00:00+00:00</time>
        <ele>2614.0</ele>
      </trkpt>
      <trkpt lat="44.473929" lon="6.854459">
        <time>1970-01-01T00:00:00+00:00</time>
        <ele>2609.0</ele>
      </trkpt>
      <trkpt lat="44.474049" lon="6.854077">
        <time>1970-01-01T00:00:00+00:00</time>
        <ele>2601.0</ele>
      </trkpt>
      <trkpt lat="44.474323" lon="6.853608">
        <time>1970-01-01T00:00:00+00:00</time>
        <ele>2587.0</ele>
      </trkpt>
      <trkpt lat="44.474406" lon="6.853525">
        <time>1970-01-01T00:00:00+00:00</time>
        <ele>2583.0</ele>
      </trkpt>
      <trkpt lat="44.474415" lon="6.853593">
        <time>1970-01-01T00:00:00+00:00</time>
        <ele>2581.0</ele>
      </trkpt>
      <trkpt lat="44.47429" lon="6.853828">
        <time>1970-01-01T00:00:00+00:00</time>
        <ele>2586.0</ele>
      </trkpt>
      <trkpt lat="44.474178" lon="6.854102">
        <time>1970-01-01T00:00:00+00:00</time>
        <ele>2590.0</ele>
      </trkpt>
      <trkpt lat="44.474165" lon="6.8545">
        <time>1970-01-01T00:00:00+00:00</time>
        <ele>2593.0</ele>
      </trkpt>
      <trkpt lat="44.47421" lon="6.854582">
        <time>1970-01-01T00:00:00+00:00</time>
        <ele>2590.0</ele>
      </trkpt>
      <trkpt lat="44.474254" lon="6.854372">
        <time>1970-01-01T00:00:00+00:00</time>
        <ele>2583.0</ele>
      </trkpt>
      <trkpt lat="44.474359" lon="6.85409">
        <time>1970-01-01T00:00:00+00:00</time>
        <ele>2575.0</ele>
      </trkpt>
      <trkpt lat="44.474539" lon="6.853804">
        <time>1970-01-01T00:00:00+00:00</time>
        <ele>2568.0</ele>
      </trkpt>
      <trkpt lat="44.47506" lon="6.852786">
        <time>1970-01-01T00:00:00+00:00</time>
        <ele>2550.0</ele>
      </trkpt>
      <trkpt lat="44.475045" lon="6.852541">
        <time>1970-01-01T00:00:00+00:00</time>
        <ele>2548.0</ele>
      </trkpt>
      <trkpt lat="44.475085" lon="6.852421">
        <time>1970-01-01T00:00:00+00:00</time>
        <ele>2548.0</ele>
      </trkpt>
      <trkpt lat="44.475078" lon="6.852234">
        <time>1970-01-01T00:00:00+00:00</time>
        <ele>2546.0</ele>
      </trkpt>
      <trkpt lat="44.475143" lon="6.851957">
        <time>1970-01-01T00:00:00+00:00</time>
        <ele>2545.0</ele>
      </trkpt>
      <trkpt lat="44.475116" lon="6.851746">
        <time>1970-01-01T00:00:00+00:00</time>
        <ele>2543.0</ele>
      </trkpt>
      <trkpt lat="44.474804" lon="6.851251">
        <time>1970-01-01T00:00:00+00:00</time>
        <ele>2527.0</ele>
      </trkpt>
      <trkpt lat="44.474691" lon="6.850961">
        <time>1970-01-01T00:00:00+00:00</time>
        <ele>2524.0</ele>
      </trkpt>
      <trkpt lat="44.474771" lon="6.851617">
        <time>1970-01-01T00:00:00+00:00</time>
        <ele>2522.0</ele>
      </trkpt>
      <trkpt lat="44.474451" lon="6.85093">
        <time>1970-01-01T00:00:00+00:00</time>
        <ele>2507.0</ele>
      </trkpt>
      <trkpt lat="44.474397" lon="6.851601">
        <time>1970-01-01T00:00:00+00:00</time>
        <ele>2502.0</ele>
      </trkpt>
      <trkpt lat="44.474324" lon="6.851503">
        <time>1970-01-01T00:00:00+00:00</time>
        <ele>2497.0</ele>
      </trkpt>
      <trkpt lat="44.474211" lon="6.851252">
        <time>1970-01-01T00:00:00+00:00</time>
        <ele>2489.0</ele>
      </trkpt>
      <trkpt lat="44.474157" lon="6.851032">
        <time>1970-01-01T00:00:00+00:00</time>
        <ele>2485.0</ele>
      </trkpt>
      <trkpt lat="44.474057" lon="6.85077">
        <time>1970-01-01T00:00:00+00:00</time>
        <ele>2479.0</ele>
      </trkpt>
      <trkpt lat="44.474035" lon="6.850351">
        <time>1970-01-01T00:00:00+00:00</time>
        <ele>2475.0</ele>
      </trkpt>
      <trkpt lat="44.473972" lon="6.850175">
        <time>1970-01-01T00:00:00+00:00</time>
        <ele>2471.0</ele>
      </trkpt>
      <trkpt lat="44.473611" lon="6.849748">
        <time>1970-01-01T00:00:00+00:00</time>
        <ele>2462.0</ele>
      </trkpt>
      <trkpt lat="44.47357" lon="6.849739">
        <time>1970-01-01T00:00:00+00:00</time>
        <ele>2460.0</ele>
      </trkpt>
      <trkpt lat="44.473428" lon="6.849532">
        <time>1970-01-01T00:00:00+00:00</time>
        <ele>2455.0</ele>
      </trkpt>
      <trkpt lat="44.47315" lon="6.849614">
        <time>1970-01-01T00:00:00+00:00</time>
        <ele>2448.0</ele>
      </trkpt>
      <trkpt lat="44.472897" lon="6.849574">
        <time>1970-01-01T00:00:00+00:00</time>
        <ele>2440.0</ele>
      </trkpt>
      <trkpt lat="44.472851" lon="6.849336">
        <time>1970-01-01T00:00:00+00:00</time>
        <ele>2436.0</ele>
      </trkpt>
      <trkpt lat="44.47281" lon="6.849267">
        <time>1970-01-01T00:00:00+00:00</time>
        <ele>2433.0</ele>
      </trkpt>
      <trkpt lat="44.472579" lon="6.849546">
        <time>1970-01-01T00:00:00+00:00</time>
        <ele>2429.0</ele>
      </trkpt>
      <trkpt lat="44.472551" lon="6.849405">
        <time>1970-01-01T00:00:00+00:00</time>
        <ele>2425.0</ele>
      </trkpt>
      <trkpt lat="44.472457" lon="6.849367">
        <time>1970-01-01T00:00:00+00:00</time>
        <ele>2419.0</ele>
      </trkpt>
      <trkpt lat="44.472419" lon="6.849319">
        <time>1970-01-01T00:00:00+00:00</time>
        <ele>2416.0</ele>
      </trkpt>
      <trkpt lat="44.472325" lon="6.849274">
        <time>1970-01-01T00:00:00+00:00</time>
        <ele>2409.0</ele>
      </trkpt>
      <trkpt lat="44.472311" lon="6.849153">
        <time>1970-01-01T00:00:00+00:00</time>
        <ele>2407.0</ele>
      </trkpt>
      <trkpt lat="44.472032" lon="6.848711">
        <time>1970-01-01T00:00:00+00:00</time>
        <ele>2391.0</ele>
      </trkpt>
      <trkpt lat="44.471893" lon="6.84868">
        <time>1970-01-01T00:00:00+00:00</time>
        <ele>2383.0</ele>
      </trkpt>
      <trkpt lat="44.471825" lon="6.848791">
        <time>1970-01-01T00:00:00+00:00</time>
        <ele>2379.0</ele>
      </trkpt>
      <trkpt lat="44.47177" lon="6.848948">
        <time>1970-01-01T00:00:00+00:00</time>
        <ele>2376.0</ele>
      </trkpt>
      <trkpt lat="44.471612" lon="6.849095">
        <time>1970-01-01T00:00:00+00:00</time>
        <ele>2369.0</ele>
      </trkpt>
      <trkpt lat="44.471437" lon="6.84943">
        <time>1970-01-01T00:00:00+00:00</time>
        <ele>2361.0</ele>
      </trkpt>
      <trkpt lat="44.471301" lon="6.849588">
        <time>1970-01-01T00:00:00+00:00</time>
        <ele>2352.0</ele>
      </trkpt>
      <trkpt lat="44.47125" lon="6.849816">
        <time>1970-01-01T00:00:00+00:00</time>
        <ele>2350.0</ele>
      </trkpt>
      <trkpt lat="44.471014" lon="6.850105">
        <time>1970-01-01T00:00:00+00:00</time>
        <ele>2344.0</ele>
      </trkpt>
      <trkpt lat="44.470794" lon="6.850197">
        <time>1970-01-01T00:00:00+00:00</time>
        <ele>2337.0</ele>
      </trkpt>
      <trkpt lat="44.470638" lon="6.850197">
        <time>1970-01-01T00:00:00+00:00</time>
        <ele>2333.0</ele>
      </trkpt>
      <trkpt lat="44.470537" lon="6.850311">
        <time>1970-01-01T00:00:00+00:00</time>
        <ele>2332.0</ele>
      </trkpt>
      <trkpt lat="44.47002" lon="6.850458">
        <time>1970-01-01T00:00:00+00:00</time>
        <ele>2326.0</ele>
      </trkpt>
      <trkpt lat="44.469934" lon="6.850436">
        <time>1970-01-01T00:00:00+00:00</time>
        <ele>2324.0</ele>
      </trkpt>
      <trkpt lat="44.469747" lon="6.850531">
        <time>1970-01-01T00:00:00+00:00</time>
        <ele>2324.0</ele>
      </trkpt>
      <trkpt lat="44.468977" lon="6.850548">
        <time>1970-01-01T00:00:00+00:00</time>
        <ele>2303.0</ele>
      </trkpt>
      <trkpt lat="44.468865" lon="6.850464">
        <time>1970-01-01T00:00:00+00:00</time>
        <ele>2299.0</ele>
      </trkpt>
      <trkpt lat="44.468389" lon="6.850362">
        <time>1970-01-01T00:00:00+00:00</time>
        <ele>2286.0</ele>
      </trkpt>
      <trkpt lat="44.468354" lon="6.850315">
        <time>1970-01-01T00:00:00+00:00</time>
        <ele>2285.0</ele>
      </trkpt>
      <trkpt lat="44.468198" lon="6.850306">
        <time>1970-01-01T00:00:00+00:00</time>
        <ele>2281.0</ele>
      </trkpt>
      <trkpt lat="44.467758" lon="6.850038">
        <time>1970-01-01T00:00:00+00:00</time>
        <ele>2267.0</ele>
      </trkpt>
      <trkpt lat="44.467556" lon="6.849814">
        <time>1970-01-01T00:00:00+00:00</time>
        <ele>2259.0</ele>
      </trkpt>
      <trkpt lat="44.467492" lon="6.849671">
        <time>1970-01-01T00:00:00+00:00</time>
        <ele>2255.0</ele>
      </trkpt>
      <trkpt lat="44.467391" lon="6.849658">
        <time>1970-01-01T00:00:00+00:00</time>
        <ele>2251.0</ele>
      </trkpt>
      <trkpt lat="44.46718" lon="6.849769">
        <time>1970-01-01T00:00:00+00:00</time>
        <ele>2243.0</ele>
      </trkpt>
      <trkpt lat="44.467074" lon="6.84972">
        <time>1970-01-01T00:00:00+00:00</time>
        <ele>2238.0</ele>
      </trkpt>
      <trkpt lat="44.466818" lon="6.849821">
        <time>1970-01-01T00:00:00+00:00</time>
        <ele>2228.0</ele>
      </trkpt>
      <trkpt lat="44.466688" lon="6.849817">
        <time>1970-01-01T00:00:00+00:00</time>
        <ele>2225.0</ele>
      </trkpt>
      <trkpt lat="44.466614" lon="6.849759">
        <time>1970-01-01T00:00:00+00:00</time>
        <ele>2222.0</ele>
      </trkpt>
      <trkpt lat="44.466526" lon="6.84974">
        <time>1970-01-01T00:00:00+00:00</time>
        <ele>2218.0</ele>
      </trkpt>
      <trkpt lat="44.466464" lon="6.849789">
        <time>1970-01-01T00:00:00+00:00</time>
        <ele>2215.0</ele>
      </trkpt>
      <trkpt lat="44.46642" lon="6.849746">
        <time>1970-01-01T00:00:00+00:00</time>
        <ele>2213.0</ele>
      </trkpt>
      <trkpt lat="44.466408" lon="6.849507">
        <time>1970-01-01T00:00:00+00:00</time>
        <ele>2209.0</ele>
      </trkpt>
      <trkpt lat="44.466285" lon="6.849723">
        <time>1970-01-01T00:00:00+00:00</time>
        <ele>2205.0</ele>
      </trkpt>
      <trkpt lat="44.466255" lon="6.849675">
        <time>1970-01-01T00:00:00+00:00</time>
        <ele>2202.0</ele>
      </trkpt>
      <trkpt lat="44.466244" lon="6.849508">
        <time>1970-01-01T00:00:00+00:00</time>
        <ele>2200.0</ele>
      </trkpt>
      <trkpt lat="44.466118" lon="6.8497">
        <time>1970-01-01T00:00:00+00:00</time>
        <ele>2196.0</ele>
      </trkpt>
      <trkpt lat="44.466078" lon="6.849495">
        <time>1970-01-01T00:00:00+00:00</time>
        <ele>2191.0</ele>
      </trkpt>
      <trkpt lat="44.466021" lon="6.849694">
        <time>1970-01-01T00:00:00+00:00</time>
        <ele>2190.0</ele>
      </trkpt>
      <trkpt lat="44.466033" lon="6.84979">
        <time>1970-01-01T00:00:00+00:00</time>
        <ele>2192.0</ele>
      </trkpt>
      <trkpt lat="44.465941" lon="6.849851">
        <time>1970-01-01T00:00:00+00:00</time>
        <ele>2187.0</ele>
      </trkpt>
      <trkpt lat="44.465899" lon="6.849851">
        <time>1970-01-01T00:00:00+00:00</time>
        <ele>2185.0</ele>
      </trkpt>
      <trkpt lat="44.465809" lon="6.849934">
        <time>1970-01-01T00:00:00+00:00</time>
        <ele>2181.0</ele>
      </trkpt>
      <trkpt lat="44.465688" lon="6.850003">
        <time>1970-01-01T00:00:00+00:00</time>
        <ele>2174.0</ele>
      </trkpt>
      <trkpt lat="44.465605" lon="6.850193">
        <time>1970-01-01T00:00:00+00:00</time>
        <ele>2169.0</ele>
      </trkpt>
      <trkpt lat="44.465519" lon="6.850494">
        <time>1970-01-01T00:00:00+00:00</time>
        <ele>2161.0</ele>
      </trkpt>
      <trkpt lat="44.465499" lon="6.850757">
        <time>1970-01-01T00:00:00+00:00</time>
        <ele>2156.0</ele>
      </trkpt>
      <trkpt lat="44.465175" lon="6.850237">
        <time>1970-01-01T00:00:00+00:00</time>
        <ele>2141.0</ele>
      </trkpt>
      <trkpt lat="44.465154" lon="6.850245">
        <time>1970-01-01T00:00:00+00:00</time>
        <ele>2140.0</ele>
      </trkpt>
      <trkpt lat="44.465031" lon="6.849836">
        <time>1970-01-01T00:00:00+00:00</time>
        <ele>2136.0</ele>
      </trkpt>
      <trkpt lat="44.464946" lon="6.850034">
        <time>1970-01-01T00:00:00+00:00</time>
        <ele>2131.0</ele>
      </trkpt>
      <trkpt lat="44.464923" lon="6.850415">
        <time>1970-01-01T00:00:00+00:00</time>
        <ele>2126.0</ele>
      </trkpt>
      <trkpt lat="44.464653" lon="6.849931">
        <time>1970-01-01T00:00:00+00:00</time>
        <ele>2117.0</ele>
      </trkpt>
      <trkpt lat="44.464621" lon="6.849775">
        <time>1970-01-01T00:00:00+00:00</time>
        <ele>2116.0</ele>
      </trkpt>
      <trkpt lat="44.464594" lon="6.849455">
        <time>1970-01-01T00:00:00+00:00</time>
        <ele>2114.0</ele>
      </trkpt>
      <trkpt lat="44.464485" lon="6.849211">
        <time>1970-01-01T00:00:00+00:00</time>
        <ele>2110.0</ele>
      </trkpt>
      <trkpt lat="44.464403" lon="6.848745">
        <time>1970-01-01T00:00:00+00:00</time>
        <ele>2106.0</ele>
      </trkpt>
      <trkpt lat="44.464222" lon="6.848572">
        <time>1970-01-01T00:00:00+00:00</time>
        <ele>2101.0</ele>
      </trkpt>
      <trkpt lat="44.464035" lon="6.848336">
        <time>1970-01-01T00:00:00+00:00</time>
        <ele>2096.0</ele>
      </trkpt>
      <trkpt lat="44.463772" lon="6.848043">
        <time>1970-01-01T00:00:00+00:00</time>
        <ele>2088.0</ele>
      </trkpt>
      <trkpt lat="44.463639" lon="6.847904">
        <time>1970-01-01T00:00:00+00:00</time>
        <ele>2084.0</ele>
      </trkpt>
      <trkpt lat="44.463313" lon="6.847655">
        <time>1970-01-01T00:00:00+00:00</time>
        <ele>2077.0</ele>
      </trkpt>
      <trkpt lat="44.463073" lon="6.847581">
        <time>1970-01-01T00:00:00+00:00</time>
        <ele>2072.0</ele>
      </trkpt>
      <trkpt lat="44.462929" lon="6.847616">
        <time>1970-01-01T00:00:00+00:00</time>
        <ele>2069.0</ele>
      </trkpt>
      <trkpt lat="44.462834" lon="6.847569">
        <time>1970-01-01T00:00:00+00:00</time>
        <ele>2067.0</ele>
      </trkpt>
      <trkpt lat="44.462711" lon="6.847695">
        <time>1970-01-01T00:00:00+00:00</time>
        <ele>2064.0</ele>
      </trkpt>
      <trkpt lat="44.462523" lon="6.848095">
        <time>1970-01-01T00:00:00+00:00</time>
        <ele>2059.0</ele>
      </trkpt>
      <trkpt lat="44.462322" lon="6.848125">
        <time>1970-01-01T00:00:00+00:00</time>
        <ele>2053.0</ele>
      </trkpt>
      <trkpt lat="44.462236" lon="6.84823">
        <time>1970-01-01T00:00:00+00:00</time>
        <ele>2051.0</ele>
      </trkpt>
      <trkpt lat="44.462174" lon="6.848234">
        <time>1970-01-01T00:00:00+00:00</time>
        <ele>2049.0</ele>
      </trkpt>
      <trkpt lat="44.462135" lon="6.848281">
        <time>1970-01-01T00:00:00+00:00</time>
        <ele>2048.0</ele>
      </trkpt>
      <trkpt lat="44.46209" lon="6.848305">
        <time>1970-01-01T00:00:00+00:00</time>
        <ele>2047.0</ele>
      </trkpt>
      <trkpt lat="44.46192" lon="6.848364">
        <time>1970-01-01T00:00:00+00:00</time>
        <ele>2043.0</ele>
      </trkpt>
      <trkpt lat="44.461874" lon="6.848431">
        <time>1970-01-01T00:00:00+00:00</time>
        <ele>2043.0</ele>
      </trkpt>
      <trkpt lat="44.461813" lon="6.848423">
        <time>1970-01-01T00:00:00+00:00</time>
        <ele>2041.0</ele>
      </trkpt>
      <trkpt lat="44.46176" lon="6.848455">
        <time>1970-01-01T00:00:00+00:00</time>
        <ele>2039.0</ele>
      </trkpt>
      <trkpt lat="44.461636" lon="6.84861">
        <time>1970-01-01T00:00:00+00:00</time>
        <ele>2036.0</ele>
      </trkpt>
      <trkpt lat="44.461594" lon="6.848819">
        <time>1970-01-01T00:00:00+00:00</time>
        <ele>2034.0</ele>
      </trkpt>
      <trkpt lat="44.461474" lon="6.848994">
        <time>1970-01-01T00:00:00+00:00</time>
        <ele>2030.0</ele>
      </trkpt>
      <trkpt lat="44.461416" lon="6.849131">
        <time>1970-01-01T00:00:00+00:00</time>
        <ele>2028.0</ele>
      </trkpt>
      <trkpt lat="44.461323" lon="6.849289">
        <time>1970-01-01T00:00:00+00:00</time>
        <ele>2023.0</ele>
      </trkpt>
      <trkpt lat="44.461315" lon="6.849359">
        <time>1970-01-01T00:00:00+00:00</time>
        <ele>2023.0</ele>
      </trkpt>
      <trkpt lat="44.461274" lon="6.849449">
        <time>1970-01-01T00:00:00+00:00</time>
        <ele>2020.0</ele>
      </trkpt>
      <trkpt lat="44.461258" lon="6.849476">
        <time>1970-01-01T00:00:00+00:00</time>
        <ele>2020.0</ele>
      </trkpt>
      <trkpt lat="44.461166" lon="6.849512">
        <time>1970-01-01T00:00:00+00:00</time>
        <ele>2016.0</ele>
      </trkpt>
      <trkpt lat="44.461112" lon="6.849512">
        <time>1970-01-01T00:00:00+00:00</time>
        <ele>2014.0</ele>
      </trkpt>
      <trkpt lat="44.461047" lon="6.849443">
        <time>1970-01-01T00:00:00+00:00</time>
        <ele>2012.0</ele>
      </trkpt>
      <trkpt lat="44.460941" lon="6.849593">
        <time>1970-01-01T00:00:00+00:00</time>
        <ele>2006.0</ele>
      </trkpt>
      <trkpt lat="44.460891" lon="6.849737">
        <time>1970-01-01T00:00:00+00:00</time>
        <ele>2003.0</ele>
      </trkpt>
      <trkpt lat="44.460783" lon="6.849794">
        <time>1970-01-01T00:00:00+00:00</time>
        <ele>1998.0</ele>
      </trkpt>
      <trkpt lat="44.460635" lon="6.849916">
        <time>1970-01-01T00:00:00+00:00</time>
        <ele>1990.0</ele>
      </trkpt>
      <trkpt lat="44.460619" lon="6.849937">
        <time>1970-01-01T00:00:00+00:00</time>
        <ele>1989.0</ele>
      </trkpt>
      <trkpt lat="44.460617" lon="6.850014">
        <time>1970-01-01T00:00:00+00:00</time>
        <ele>1988.0</ele>
      </trkpt>
      <trkpt lat="44.460533" lon="6.849998">
        <time>1970-01-01T00:00:00+00:00</time>
        <ele>1985.0</ele>
      </trkpt>
      <trkpt lat="44.460509" lon="6.850022">
        <time>1970-01-01T00:00:00+00:00</time>
        <ele>1984.0</ele>
      </trkpt>
      <trkpt lat="44.460502" lon="6.850065">
        <time>1970-01-01T00:00:00+00:00</time>
        <ele>1983.0</ele>
      </trkpt>
      <trkpt lat="44.460482" lon="6.850076">
        <time>1970-01-01T00:00:00+00:00</time>
        <ele>1982.0</ele>
      </trkpt>
      <trkpt lat="44.460406" lon="6.850064">
        <time>1970-01-01T00:00:00+00:00</time>
        <ele>1979.0</ele>
      </trkpt>
      <trkpt lat="44.46035" lon="6.850006">
        <time>1970-01-01T00:00:00+00:00</time>
        <ele>1977.0</ele>
      </trkpt>
      <trkpt lat="44.460295" lon="6.850072">
        <time>1970-01-01T00:00:00+00:00</time>
        <ele>1974.0</ele>
      </trkpt>
      <trkpt lat="44.460288" lon="6.850211">
        <time>1970-01-01T00:00:00+00:00</time>
        <ele>1973.0</ele>
      </trkpt>
      <trkpt lat="44.460275" lon="6.850409">
        <time>1970-01-01T00:00:00+00:00</time>
        <ele>1970.0</ele>
      </trkpt>
      <trkpt lat="44.460225" lon="6.850701">
        <time>1970-01-01T00:00:00+00:00</time>
        <ele>1963.0</ele>
      </trkpt>
      <trkpt lat="44.460108" lon="6.850943">
        <time>1970-01-01T00:00:00+00:00</time>
        <ele>1954.0</ele>
      </trkpt>
      <trkpt lat="44.459971" lon="6.850931">
        <time>1970-01-01T00:00:00+00:00</time>
        <ele>1951.0</ele>
      </trkpt>
      <trkpt lat="44.459779" lon="6.851161">
        <time>1970-01-01T00:00:00+00:00</time>
        <ele>1941.0</ele>
      </trkpt>
      <trkpt lat="44.459513" lon="6.851232">
        <time>1970-01-01T00:00:00+00:00</time>
        <ele>1931.0</ele>
      </trkpt>
      <trkpt lat="44.459207" lon="6.851122">
        <time>1970-01-01T00:00:00+00:00</time>
        <ele>1923.0</ele>
      </trkpt>
      <trkpt lat="44.459126" lon="6.851082">
        <time>1970-01-01T00:00:00+00:00</time>
        <ele>1922.0</ele>
      </trkpt>
      <trkpt lat="44.459046" lon="6.851005">
        <time>1970-01-01T00:00:00+00:00</time>
        <ele>1922.0</ele>
      </trkpt>
      <trkpt lat="44.459" lon="6.851025">
        <time>1970-01-01T00:00:00+00:00</time>
        <ele>1920.0</ele>
      </trkpt>
      <trkpt lat="44.458783" lon="6.851016">
        <time>1970-01-01T00:00:00+00:00</time>
        <ele>1916.0</ele>
      </trkpt>
      <trkpt lat="44.4587" lon="6.85104">
        <time>1970-01-01T00:00:00+00:00</time>
        <ele>1913.0</ele>
      </trkpt>
      <trkpt lat="44.458637" lon="6.851028">
        <time>1970-01-01T00:00:00+00:00</time>
        <ele>1911.0</ele>
      </trkpt>
      <trkpt lat="44.458587" lon="6.851074">
        <time>1970-01-01T00:00:00+00:00</time>
        <ele>1908.0</ele>
      </trkpt>
      <trkpt lat="44.458521" lon="6.851043">
        <time>1970-01-01T00:00:00+00:00</time>
        <ele>1907.0</ele>
      </trkpt>
      <trkpt lat="44.45846" lon="6.851105">
        <time>1970-01-01T00:00:00+00:00</time>
        <ele>1904.0</ele>
      </trkpt>
      <trkpt lat="44.458408" lon="6.851098">
        <time>1970-01-01T00:00:00+00:00</time>
        <ele>1903.0</ele>
      </trkpt>
      <trkpt lat="44.458362" lon="6.851138">
        <time>1970-01-01T00:00:00+00:00</time>
        <ele>1901.0</ele>
      </trkpt>
      <trkpt lat="44.45833" lon="6.851121">
        <time>1970-01-01T00:00:00+00:00</time>
        <ele>1901.0</ele>
      </trkpt>
      <trkpt lat="44.458296" lon="6.851173">
        <time>1970-01-01T00:00:00+00:00</time>
        <ele>1898.0</ele>
      </trkpt>
      <trkpt lat="44.458225" lon="6.851214">
        <time>1970-01-01T00:00:00+00:00</time>
        <ele>1895.0</ele>
      </trkpt>
      <trkpt lat="44.458159" lon="6.851228">
        <time>1970-01-01T00:00:00+00:00</time>
        <ele>1893.0</ele>
      </trkpt>
      <trkpt lat="44.458115" lon="6.851263">
        <time>1970-01-01T00:00:00+00:00</time>
        <ele>1892.0</ele>
      </trkpt>
      <trkpt lat="44.458052" lon="6.851266">
        <time>1970-01-01T00:00:00+00:00</time>
        <ele>1891.0</ele>
      </trkpt>
      <trkpt lat="44.457802" lon="6.851411">
        <time>1970-01-01T00:00:00+00:00</time>
        <ele>1882.0</ele>
      </trkpt>
      <trkpt lat="44.457692" lon="6.851377">
        <time>1970-01-01T00:00:00+00:00</time>
        <ele>1879.0</ele>
      </trkpt>
      <trkpt lat="44.45762" lon="6.851307">
        <time>1970-01-01T00:00:00+00:00</time>
        <ele>1878.0</ele>
      </trkpt>
      <trkpt lat="44.457601" lon="6.85132">
        <time>1970-01-01T00:00:00+00:00</time>
        <ele>1877.0</ele>
      </trkpt>
      <trkpt lat="44.457659" lon="6.851764">
        <time>1970-01-01T00:00:00+00:00</time>
        <ele>1868.0</ele>
      </trkpt>
      <trkpt lat="44.457684" lon="6.851811">
        <time>1970-01-01T00:00:00+00:00</time>
        <ele>1867.0</ele>
      </trkpt>
      <trkpt lat="44.457756" lon="6.851853">
        <time>1970-01-01T00:00:00+00:00</time>
        <ele>1867.0</ele>
      </trkpt>
      <trkpt lat="44.457748" lon="6.851881">
        <time>1970-01-01T00:00:00+00:00</time>
        <ele>1866.0</ele>
      </trkpt>
      <trkpt lat="44.45772" lon="6.851899">
        <time>1970-01-01T00:00:00+00:00</time>
        <ele>1865.0</ele>
      </trkpt>
      <trkpt lat="44.457643" lon="6.851921">
        <time>1970-01-01T00:00:00+00:00</time>
        <ele>1863.0</ele>
      </trkpt>
      <trkpt lat="44.457649" lon="6.851986">
        <time>1970-01-01T00:00:00+00:00</time>
        <ele>1861.0</ele>
      </trkpt>
      <trkpt lat="44.457588" lon="6.851991">
        <time>1970-01-01T00:00:00+00:00</time>
        <ele>1859.0</ele>
      </trkpt>
      <trkpt lat="44.457536" lon="6.852113">
        <time>1970-01-01T00:00:00+00:00</time>
        <ele>1854.0</ele>
      </trkpt>
      <trkpt lat="44.457666" lon="6.852273">
        <time>1970-01-01T00:00:00+00:00</time>
        <ele>1853.0</ele>
      </trkpt>
      <trkpt lat="44.457684" lon="6.852413">
        <time>1970-01-01T00:00:00+00:00</time>
        <ele>1849.0</ele>
      </trkpt>
      <trkpt lat="44.457624" lon="6.85247">
        <time>1970-01-01T00:00:00+00:00</time>
        <ele>1847.0</ele>
      </trkpt>
      <trkpt lat="44.457672" lon="6.852537">
        <time>1970-01-01T00:00:00+00:00</time>
        <ele>1846.0</ele>
      </trkpt>
      <trkpt lat="44.457639" lon="6.85261">
        <time>1970-01-01T00:00:00+00:00</time>
        <ele>1843.0</ele>
      </trkpt>
      <trkpt lat="44.457697" lon="6.852656">
        <time>1970-01-01T00:00:00+00:00</time>
        <ele>1843.0</ele>
      </trkpt>
      <trkpt lat="44.457606" lon="6.852751">
        <time>1970-01-01T00:00:00+00:00</time>
        <ele>1837.0</ele>
      </trkpt>
      <trkpt lat="44.457601" lon="6.852859">
        <time>1970-01-01T00:00:00+00:00</time>
        <ele>1834.0</ele>
      </trkpt>
      <trkpt lat="44.457526" lon="6.8529">
        <time>1970-01-01T00:00:00+00:00</time>
        <ele>1830.0</ele>
      </trkpt>
      <trkpt lat="44.457521" lon="6.852933">
        <time>1970-01-01T00:00:00+00:00</time>
        <ele>1829.0</ele>
      </trkpt>
      <trkpt lat="44.457631" lon="6.852963">
        <time>1970-01-01T00:00:00+00:00</time>
        <ele>1832.0</ele>
      </trkpt>
      <trkpt lat="44.457661" lon="6.853041">
        <time>1970-01-01T00:00:00+00:00</time>
        <ele>1831.0</ele>
      </trkpt>
      <trkpt lat="44.457655" lon="6.853062">
        <time>1970-01-01T00:00:00+00:00</time>
        <ele>1830.0</ele>
      </trkpt>
      <trkpt lat="44.457606" lon="6.853056">
        <time>1970-01-01T00:00:00+00:00</time>
        <ele>1828.0</ele>
      </trkpt>
      <trkpt lat="44.457535" lon="6.853137">
        <time>1970-01-01T00:00:00+00:00</time>
        <ele>1823.0</ele>
      </trkpt>
      <trkpt lat="44.457463" lon="6.85318">
        <time>1970-01-01T00:00:00+00:00</time>
        <ele>1819.0</ele>
      </trkpt>
      <trkpt lat="44.457456" lon="6.853194">
        <time>1970-01-01T00:00:00+00:00</time>
        <ele>1819.0</ele>
      </trkpt>
      <trkpt lat="44.457482" lon="6.853228">
        <time>1970-01-01T00:00:00+00:00</time>
        <ele>1818.0</ele>
      </trkpt>
      <trkpt lat="44.457474" lon="6.853246">
        <time>1970-01-01T00:00:00+00:00</time>
        <ele>1817.0</ele>
      </trkpt>
      <trkpt lat="44.457379" lon="6.853248">
        <time>1970-01-01T00:00:00+00:00</time>
        <ele>1814.0</ele>
      </trkpt>
      <trkpt lat="44.45737" lon="6.853285">
        <time>1970-01-01T00:00:00+00:00</time>
        <ele>1812.0</ele>
      </trkpt>
      <trkpt lat="44.457395" lon="6.853312">
        <time>1970-01-01T00:00:00+00:00</time>
        <ele>1812.0</ele>
      </trkpt>
      <trkpt lat="44.45739" lon="6.85334">
        <time>1970-01-01T00:00:00+00:00</time>
        <ele>1811.0</ele>
      </trkpt>
      <trkpt lat="44.457349" lon="6.853341">
        <time>1970-01-01T00:00:00+00:00</time>
        <ele>1809.0</ele>
      </trkpt>
      <trkpt lat="44.457281" lon="6.853297">
        <time>1970-01-01T00:00:00+00:00</time>
        <ele>1809.0</ele>
      </trkpt>
      <trkpt lat="44.457249" lon="6.853378">
        <time>1970-01-01T00:00:00+00:00</time>
        <ele>1805.0</ele>
      </trkpt>
      <trkpt lat="44.457178" lon="6.853398">
        <time>1970-01-01T00:00:00+00:00</time>
        <ele>1801.0</ele>
      </trkpt>
      <trkpt lat="44.457193" lon="6.853446">
        <time>1970-01-01T00:00:00+00:00</time>
        <ele>1800.0</ele>
      </trkpt>
      <trkpt lat="44.457251" lon="6.8535">
        <time>1970-01-01T00:00:00+00:00</time>
        <ele>1800.0</ele>
      </trkpt>
      <trkpt lat="44.457231" lon="6.853529">
        <time>1970-01-01T00:00:00+00:00</time>
        <ele>1798.0</ele>
      </trkpt>
      <trkpt lat="44.457182" lon="6.853532">
        <time>1970-01-01T00:00:00+00:00</time>
        <ele>1796.0</ele>
      </trkpt>
      <trkpt lat="44.457214" lon="6.853605">
        <time>1970-01-01T00:00:00+00:00</time>
        <ele>1795.0</ele>
      </trkpt>
      <trkpt lat="44.457202" lon="6.853617">
        <time>1970-01-01T00:00:00+00:00</time>
        <ele>1794.0</ele>
      </trkpt>
      <trkpt lat="44.45709" lon="6.853651">
        <time>1970-01-01T00:00:00+00:00</time>
        <ele>1788.0</ele>
      </trkpt>
      <trkpt lat="44.456987" lon="6.85361">
        <time>1970-01-01T00:00:00+00:00</time>
        <ele>1785.0</ele>
      </trkpt>
      <trkpt lat="44.457001" lon="6.853719">
        <time>1970-01-01T00:00:00+00:00</time>
        <ele>1782.0</ele>
      </trkpt>
      <trkpt lat="44.456985" lon="6.853733">
        <time>1970-01-01T00:00:00+00:00</time>
        <ele>1781.0</ele>
      </trkpt>
      <trkpt lat="44.456843" lon="6.853515">
        <time>1970-01-01T00:00:00+00:00</time>
        <ele>1780.0</ele>
      </trkpt>
      <trkpt lat="44.456703" lon="6.853455">
        <time>1970-01-01T00:00:00+00:00</time>
        <ele>1776.0</ele>
      </trkpt>
      <trkpt lat="44.456673" lon="6.853422">
        <time>1970-01-01T00:00:00+00:00</time>
        <ele>1775.0</ele>
      </trkpt>
      <trkpt lat="44.456643" lon="6.85332">
        <time>1970-01-01T00:00:00+00:00</time>
        <ele>1777.0</ele>
      </trkpt>
      <trkpt lat="44.456499" lon="6.85318">
        <time>1970-01-01T00:00:00+00:00</time>
        <ele>1774.0</ele>
      </trkpt>
      <trkpt lat="44.456149" lon="6.852994">
        <time>1970-01-01T00:00:00+00:00</time>
        <ele>1764.0</ele>
      </trkpt>
      <trkpt lat="44.456024" lon="6.852974">
        <time>1970-01-01T00:00:00+00:00</time>
        <ele>1760.0</ele>
      </trkpt>
      <trkpt lat="44.455939" lon="6.852852">
        <time>1970-01-01T00:00:00+00:00</time>
        <ele>1760.0</ele>
      </trkpt>
      <trkpt lat="44.455894" lon="6.852837">
        <time>1970-01-01T00:00:00+00:00</time>
        <ele>1758.0</ele>
      </trkpt>
      <trkpt lat="44.455744" lon="6.852874">
        <time>1970-01-01T00:00:00+00:00</time>
        <ele>1753.0</ele>
      </trkpt>
      <trkpt lat="44.455694" lon="6.852968">
        <time>1970-01-01T00:00:00+00:00</time>
        <ele>1750.0</ele>
      </trkpt>
      <trkpt lat="44.455538" lon="6.852943">
        <time>1970-01-01T00:00:00+00:00</time>
        <ele>1748.0</ele>
      </trkpt>
      <trkpt lat="44.455173" lon="6.852617">
        <time>1970-01-01T00:00:00+00:00</time>
        <ele>1744.0</ele>
      </trkpt>
      <trkpt lat="44.455118" lon="6.852547">
        <time>1970-01-01T00:00:00+00:00</time>
        <ele>1742.0</ele>
      </trkpt>
      <trkpt lat="44.455015" lon="6.852273">
        <time>1970-01-01T00:00:00+00:00</time>
        <ele>1738.0</ele>
      </trkpt>
      <trkpt lat="44.454906" lon="6.852037">
        <time>1970-01-01T00:00:00+00:00</time>
        <ele>1735.0</ele>
      </trkpt>
      <trkpt lat="44.454669" lon="6.851645">
        <time>1970-01-01T00:00:00+00:00</time>
        <ele>1730.0</ele>
      </trkpt>
      <trkpt lat="44.454528" lon="6.851472">
        <time>1970-01-01T00:00:00+00:00</time>
        <ele>1728.0</ele>
      </trkpt>
      <trkpt lat="44.454414" lon="6.85137">
        <time>1970-01-01T00:00:00+00:00</time>
        <ele>1727.0</ele>
      </trkpt>
      <trkpt lat="44.45423" lon="6.851268">
        <time>1970-01-01T00:00:00+00:00</time>
        <ele>1725.0</ele>
      </trkpt>
      <trkpt lat="44.453698" lon="6.851096">
        <time>1970-01-01T00:00:00+00:00</time>
        <ele>1717.0</ele>
      </trkpt>
      <trkpt lat="44.453381" lon="6.850977">
        <time>1970-01-01T00:00:00+00:00</time>
        <ele>1715.0</ele>
      </trkpt>
      <trkpt lat="44.45305" lon="6.85048">
        <time>1970-01-01T00:00:00+00:00</time>
        <ele>1708.0</ele>
      </trkpt>
      <trkpt lat="44.452985" lon="6.850352">
        <time>1970-01-01T00:00:00+00:00</time>
        <ele>1706.0</ele>
      </trkpt>
      <trkpt lat="44.452887" lon="6.850112">
        <time>1970-01-01T00:00:00+00:00</time>
        <ele>1706.0</ele>
      </trkpt>
      <trkpt lat="44.452877" lon="6.850042">
        <time>1970-01-01T00:00:00+00:00</time>
        <ele>1706.0</ele>
      </trkpt>
      <trkpt lat="44.452888" lon="6.849669">
        <time>1970-01-01T00:00:00+00:00</time>
        <ele>1706.0</ele>
      </trkpt>
      <trkpt lat="44.452873" lon="6.849556">
        <time>1970-01-01T00:00:00+00:00</time>
        <ele>1705.0</ele>
      </trkpt>
      <trkpt lat="44.452685" lon="6.849125">
        <time>1970-01-01T00:00:00+00:00</time>
        <ele>1701.0</ele>
      </trkpt>
      <trkpt lat="44.452628" lon="6.848776">
        <time>1970-01-01T00:00:00+00:00</time>
        <ele>1699.0</ele>
      </trkpt>
      <trkpt lat="44.452277" lon="6.848172">
        <time>1970-01-01T00:00:00+00:00</time>
        <ele>1692.0</ele>
      </trkpt>
      <trkpt lat="44.451886" lon="6.847698">
        <time>1970-01-01T00:00:00+00:00</time>
        <ele>1686.0</ele>
      </trkpt>
      <trkpt lat="44.451705" lon="6.847567">
        <time>1970-01-01T00:00:00+00:00</time>
        <ele>1684.0</ele>
      </trkpt>
      <trkpt lat="44.451567" lon="6.847378">
        <time>1970-01-01T00:00:00+00:00</time>
        <ele>1682.0</ele>
      </trkpt>
      <trkpt lat="44.451266" lon="6.846992">
        <time>1970-01-01T00:00:00+00:00</time>
        <ele>1679.0</ele>
      </trkpt>
      <trkpt lat="44.451577" lon="6.84651">
        <time>1970-01-01T00:00:00+00:00</time>
        <ele>1680.0</ele>
      </trkpt>
      <trkpt lat="44.451397" lon="6.846292">
        <time>1970-01-01T00:00:00+00:00</time>
        <ele>1678.0</ele>
      </trkpt>
      <trkpt lat="44.451286" lon="6.846158">
        <time>1970-01-01T00:00:00+00:00</time>
        <ele>1677.0</ele>
      </trkpt>
    </trkseg>
  </trk>
</gpx>
